Time,TemperatureF,DewpointF,PressureIn,WindDirection,WindDirectionDegrees,WindSpeedMPH,WindSpeedGustMPH,Humidity,HourlyPrecipIn,Conditions,Clouds,dailyrainin,SoftwareType,DateUTC
2013-01-10 00:01:00,37.3,28.8,30.11,South,172,1.0,2.0,71,0.00,,,0.00,Wunderground v.1.15,2013-01-10 05:01:00,
2013-01-10 00:02:00,37.2,28.7,30.11,South,172,5.0,5.0,71,0.00,,,0.00,Wunderground v.1.15,2013-01-10 05:02:00,
2013-01-10 00:04:00,37.3,28.4,30.11,South,172,1.0,5.0,70,0.00,,,0.00,Wunderground v.1.15,2013-01-10 05:04:00,
2013-01-10 00:05:00,37.3,28.8,30.11,South,172,1.0,5.0,71,0.00,,,0.00,Wunderground v.1.15,2013-01-10 05:05:00,
2013-01-10 00:09:00,37.3,28.4,30.11,South,172,1.0,5.0,70,0.00,,,0.00,Wunderground v.1.15,2013-01-10 05:09:00,
2013-01-10 00:12:00,37.3,28.4,30.11,South,172,1.0,2.0,70,0.00,,,0.00,Wunderground v.1.15,2013-01-10 05:12:00,
2013-01-10 00:15:00,37.2,29.0,30.11,South,172,6.0,6.0,72,0.00,,,0.00,Wunderground v.1.15,2013-01-10 05:15:00,
2013-01-10 00:16:00,37.2,28.3,30.11,South,172,3.0,6.0,70,0.00,,,0.00,Wunderground v.1.15,2013-01-10 05:16:00,
2013-01-10 00:17:00,37.3,28.8,30.11,South,172,1.0,6.0,71,0.00,,,0.00,Wunderground v.1.15,2013-01-10 05:17:00,
2013-01-10 00:22:00,37.2,28.7,30.11,South,172,3.0,3.0,71,0.00,,,0.00,Wunderground v.1.15,2013-01-10 05:22:00,
2013-01-10 00:27:00,37.5,28.6,30.11,South,172,3.0,6.0,70,0.00,,,0.00,Wunderground v.1.15,2013-01-10 05:27:00,
2013-01-10 00:28:00,37.5,28.6,30.11,South,172,3.0,6.0,70,0.00,,,0.00,Wunderground v.1.15,2013-01-10 05:28:00,
2013-01-10 00:33:00,37.5,28.6,30.12,South,172,3.0,5.0,70,0.00,,,0.00,Wunderground v.1.15,2013-01-10 05:33:00,
2013-01-10 00:34:00,37.6,28.7,30.11,South,172,3.0,5.0,70,0.00,,,0.00,Wunderground v.1.15,2013-01-10 05:34:00,
2013-01-10 00:40:00,37.6,28.7,30.12,South,172,5.0,5.0,70,0.00,,,0.00,Wunderground v.1.15,2013-01-10 05:40:00,
2013-01-10 00:42:00,37.7,28.8,30.11,South,172,1.0,6.0,70,0.00,,,0.00,Wunderground v.1.15,2013-01-10 05:42:00,
2013-01-10 00:46:00,37.8,28.9,30.12,South,172,1.0,6.0,70,0.00,,,0.00,Wunderground v.1.15,2013-01-10 05:46:00,
2013-01-10 00:50:00,37.7,29.1,30.12,South,172,1.0,3.0,71,0.00,,,0.00,Wunderground v.1.15,2013-01-10 05:50:00,
2013-01-10 00:53:00,37.8,29.2,30.12,South,172,5.0,5.0,71,0.00,,,0.00,Wunderground v.1.15,2013-01-10 05:53:00,
2013-01-10 00:57:00,37.9,29.0,30.12,South,172,8.0,8.0,70,0.00,,,0.00,Wunderground v.1.15,2013-01-10 05:57:00,
2013-01-10 01:01:00,38.1,29.2,30.12,South,172,5.0,5.0,70,0.00,,,0.00,Wunderground v.1.15,2013-01-10 06:01:00,
2013-01-10 01:02:00,38.1,29.2,30.13,South,172,6.0,6.0,70,0.00,,,0.00,Wunderground v.1.15,2013-01-10 06:02:00,
2013-01-10 01:03:00,38.1,29.2,30.13,South,172,4.0,6.0,70,0.00,,,0.00,Wunderground v.1.15,2013-01-10 06:03:00,
2013-01-10 01:09:00,38.1,28.8,30.13,South,172,1.0,6.0,69,0.00,,,0.00,Wunderground v.1.15,2013-01-10 06:09:00,
2013-01-10 01:10:00,38.0,29.1,30.13,South,172,4.0,6.0,70,0.00,,,0.00,Wunderground v.1.15,2013-01-10 06:10:00,
2013-01-10 01:12:00,37.9,29.0,30.13,South,172,1.0,5.0,70,0.00,,,0.00,Wunderground v.1.15,2013-01-10 06:12:00,
2013-01-10 01:15:00,37.7,28.8,30.14,South,172,6.0,6.0,70,0.00,,,0.00,Wunderground v.1.15,2013-01-10 06:15:00,
2013-01-10 01:17:00,37.7,28.8,30.14,South,172,2.0,6.0,70,0.00,,,0.00,Wunderground v.1.15,2013-01-10 06:17:00,
2013-01-10 01:23:00,37.5,28.9,30.15,South,172,0.0,3.0,71,0.00,,,0.00,Wunderground v.1.15,2013-01-10 06:23:00,
2013-01-10 01:24:00,37.4,28.5,30.15,South,172,5.0,5.0,70,0.00,,,0.00,Wunderground v.1.15,2013-01-10 06:24:00,
2013-01-10 01:29:00,37.4,28.2,30.16,South,172,2.0,11.0,69,0.00,,,0.00,Wunderground v.1.15,2013-01-10 06:29:00,
2013-01-10 01:31:00,37.3,28.1,30.16,South,172,3.0,3.0,69,0.00,,,0.00,Wunderground v.1.15,2013-01-10 06:31:00,
2013-01-10 01:33:00,37.2,27.6,30.16,South,172,7.0,7.0,68,0.00,,,0.00,Wunderground v.1.15,2013-01-10 06:33:00,
2013-01-10 01:35:00,37.0,27.4,30.16,South,172,1.0,7.0,68,0.00,,,0.00,Wunderground v.1.15,2013-01-10 06:35:00,
2013-01-10 01:37:00,37.0,27.1,30.16,South,172,3.0,7.0,67,0.00,,,0.00,Wunderground v.1.15,2013-01-10 06:37:00,
2013-01-10 01:41:00,36.9,27.3,30.17,South,172,3.0,3.0,68,0.00,,,0.00,Wunderground v.1.15,2013-01-10 06:41:00,
2013-01-10 01:43:00,36.9,27.3,30.17,South,172,3.0,3.0,68,0.00,,,0.00,Wunderground v.1.15,2013-01-10 06:43:00,
2013-01-10 01:47:00,36.7,27.1,30.18,South,172,1.0,5.0,68,0.00,,,0.00,Wunderground v.1.15,2013-01-10 06:47:00,
2013-01-10 01:49:00,36.7,27.1,30.18,South,172,4.0,5.0,68,0.00,,,0.00,Wunderground v.1.15,2013-01-10 06:49:00,
2013-01-10 01:51:00,36.6,27.4,30.18,South,172,2.0,3.0,69,0.00,,,0.00,Wunderground v.1.15,2013-01-10 06:51:00,
2013-01-10 01:53:00,36.5,27.6,30.19,South,172,1.0,3.0,70,0.00,,,0.00,Wunderground v.1.15,2013-01-10 06:53:00,
2013-01-10 01:56:00,36.3,27.1,30.19,South,172,3.0,3.0,69,0.00,,,0.00,Wunderground v.1.15,2013-01-10 06:56:00,
2013-01-10 01:58:00,36.3,27.1,30.19,South,172,1.0,3.0,69,0.00,,,0.00,Wunderground v.1.15,2013-01-10 06:58:00,
2013-01-10 02:01:00,36.3,27.4,30.19,South,172,0.0,2.0,70,0.00,,,0.00,Wunderground v.1.15,2013-01-10 07:01:00,
2013-01-10 02:02:00,36.3,27.4,30.20,South,172,5.0,5.0,70,0.00,,,0.00,Wunderground v.1.15,2013-01-10 07:02:00,
2013-01-10 02:03:00,36.3,27.1,30.20,South,172,5.0,6.0,69,0.00,,,0.00,Wunderground v.1.15,2013-01-10 07:03:00,
2013-01-10 02:06:00,36.3,27.1,30.20,South,172,3.0,13.0,69,0.00,,,0.00,Wunderground v.1.15,2013-01-10 07:06:00,
2013-01-10 02:07:00,36.3,27.4,30.20,South,172,7.0,13.0,70,0.00,,,0.00,Wunderground v.1.15,2013-01-10 07:07:00,
2013-01-10 02:08:00,36.2,27.4,30.20,South,172,7.0,13.0,70,0.00,,,0.00,Wunderground v.1.15,2013-01-10 07:08:00,
2013-01-10 02:12:00,36.3,27.1,30.20,South,172,3.0,4.0,69,0.00,,,0.00,Wunderground v.1.15,2013-01-10 07:12:00,
2013-01-10 02:13:00,36.2,27.0,30.20,South,172,3.0,7.0,69,0.00,,,0.00,Wunderground v.1.15,2013-01-10 07:13:00,
2013-01-10 02:17:00,36.1,26.9,30.20,South,172,2.0,9.0,69,0.00,,,0.00,Wunderground v.1.15,2013-01-10 07:17:00,
2013-01-10 02:18:00,36.1,27.3,30.20,South,172,0.0,9.0,70,0.00,,,0.00,Wunderground v.1.15,2013-01-10 07:18:00,
2013-01-10 02:22:00,35.9,26.7,30.20,South,172,0.0,3.0,69,0.00,,,0.00,Wunderground v.1.15,2013-01-10 07:22:00,
2013-01-10 02:23:00,35.9,26.7,30.20,South,172,2.0,3.0,69,0.00,,,0.00,Wunderground v.1.15,2013-01-10 07:23:00,
2013-01-10 02:27:00,35.8,27.0,30.20,South,172,2.0,9.0,70,0.00,,,0.00,Wunderground v.1.15,2013-01-10 07:27:00,
2013-01-10 02:28:00,35.8,27.0,30.21,South,172,3.0,9.0,70,0.00,,,0.00,Wunderground v.1.15,2013-01-10 07:28:00,
2013-01-10 02:32:00,35.9,26.7,30.21,South,172,5.0,6.0,69,0.00,,,0.00,Wunderground v.1.15,2013-01-10 07:32:00,
2013-01-10 02:33:00,35.9,26.7,30.21,South,172,2.0,6.0,69,0.00,,,0.00,Wunderground v.1.15,2013-01-10 07:33:00,
2013-01-10 02:37:00,36.0,27.2,30.21,South,172,4.0,6.0,70,0.00,,,0.00,Wunderground v.1.15,2013-01-10 07:37:00,
2013-01-10 02:38:00,35.9,27.1,30.21,South,172,2.0,6.0,70,0.00,,,0.00,Wunderground v.1.15,2013-01-10 07:38:00,
2013-01-10 02:39:00,35.9,27.1,30.22,South,172,1.0,6.0,70,0.00,,,0.00,Wunderground v.1.15,2013-01-10 07:39:00,
2013-01-10 02:42:00,35.9,27.1,30.21,South,172,0.0,2.0,70,0.00,,,0.00,Wunderground v.1.15,2013-01-10 07:42:00,
2013-01-10 02:43:00,35.9,27.1,30.21,South,172,2.0,5.0,70,0.00,,,0.00,Wunderground v.1.15,2013-01-10 07:43:00,
2013-01-10 02:44:00,35.9,27.1,30.21,South,172,1.0,5.0,70,0.00,,,0.00,Wunderground v.1.15,2013-01-10 07:44:00,
2013-01-10 02:47:00,36.0,27.5,30.21,South,172,2.0,5.0,71,0.00,,,0.00,Wunderground v.1.15,2013-01-10 07:47:00,
2013-01-10 02:48:00,36.0,27.2,30.22,South,172,2.0,5.0,70,0.00,,,0.00,Wunderground v.1.15,2013-01-10 07:48:00,
2013-01-10 02:49:00,36.0,27.2,30.21,South,172,1.0,5.0,70,0.00,,,0.00,Wunderground v.1.15,2013-01-10 07:49:00,
2013-01-10 02:52:00,35.9,27.4,30.22,South,172,2.0,3.0,71,0.00,,,0.00,Wunderground v.1.15,2013-01-10 07:52:00,
2013-01-10 02:53:00,35.9,27.4,30.22,South,172,1.0,3.0,71,0.00,,,0.00,Wunderground v.1.15,2013-01-10 07:53:00,
2013-01-10 02:54:00,35.9,27.4,30.22,South,172,4.0,4.0,71,0.00,,,0.00,Wunderground v.1.15,2013-01-10 07:54:00,
2013-01-10 02:58:00,36.0,27.5,30.22,South,172,1.0,7.0,71,0.00,,,0.00,Wunderground v.1.15,2013-01-10 07:58:00,
2013-01-10 02:59:00,36.0,27.8,30.23,South,172,1.0,7.0,72,0.00,,,0.00,Wunderground v.1.15,2013-01-10 07:59:00,
2013-01-10 03:03:00,35.9,27.4,30.23,South,172,3.0,3.0,71,0.00,,,0.00,Wunderground v.1.15,2013-01-10 08:03:00,
2013-01-10 03:04:00,35.9,27.7,30.23,South,172,3.0,4.0,72,0.00,,,0.00,Wunderground v.1.15,2013-01-10 08:04:00,
2013-01-10 03:08:00,35.9,27.7,30.23,South,172,2.0,8.0,72,0.00,,,0.00,Wunderground v.1.15,2013-01-10 08:08:00,
2013-01-10 03:09:00,35.9,27.7,30.23,South,172,4.0,8.0,72,0.00,,,0.00,Wunderground v.1.15,2013-01-10 08:09:00,
2013-01-10 03:14:00,35.8,27.7,30.23,South,172,2.0,4.0,72,0.00,,,0.00,Wunderground v.1.15,2013-01-10 08:14:00,
2013-01-10 03:19:00,35.8,27.3,30.24,South,172,3.0,9.0,71,0.00,,,0.00,Wunderground v.1.15,2013-01-10 08:19:00,
2013-01-10 03:20:00,35.7,27.6,30.24,South,172,4.0,4.0,72,0.00,,,0.00,Wunderground v.1.15,2013-01-10 08:20:00,
2013-01-10 03:24:00,35.7,27.2,30.24,South,172,1.0,6.0,71,0.00,,,0.00,Wunderground v.1.15,2013-01-10 08:24:00,
2013-01-10 03:25:00,35.7,27.2,30.24,South,172,2.0,6.0,71,0.00,,,0.00,Wunderground v.1.15,2013-01-10 08:25:00,
2013-01-10 03:29:00,35.7,26.9,30.24,South,172,1.0,6.0,70,0.00,,,0.00,Wunderground v.1.15,2013-01-10 08:29:00,
2013-01-10 03:30:00,35.7,26.9,30.24,South,172,2.0,2.0,70,0.00,,,0.00,Wunderground v.1.15,2013-01-10 08:30:00,
2013-01-10 03:34:00,35.7,26.9,30.25,South,172,1.0,7.0,70,0.00,,,0.00,Wunderground v.1.15,2013-01-10 08:34:00,
2013-01-10 03:35:00,35.7,26.9,30.25,South,172,1.0,7.0,70,0.00,,,0.00,Wunderground v.1.15,2013-01-10 08:35:00,
2013-01-10 03:39:00,35.6,27.1,30.25,South,172,0.0,7.0,71,0.00,,,0.00,Wunderground v.1.15,2013-01-10 08:39:00,
2013-01-10 03:40:00,35.6,27.1,30.25,South,172,0.0,1.0,71,0.00,,,0.00,Wunderground v.1.15,2013-01-10 08:40:00,
2013-01-10 03:41:00,35.6,27.1,30.26,South,172,2.0,2.0,71,0.00,,,0.00,Wunderground v.1.15,2013-01-10 08:41:00,
2013-01-10 03:44:00,35.6,26.4,30.26,South,172,0.0,7.0,69,0.00,,,0.00,Wunderground v.1.15,2013-01-10 08:44:00,
2013-01-10 03:45:00,35.6,26.4,30.26,South,172,1.0,7.0,69,0.00,,,0.00,Wunderground v.1.15,2013-01-10 08:45:00,
2013-01-10 03:46:00,35.6,27.1,30.26,South,172,4.0,7.0,71,0.00,,,0.00,Wunderground v.1.15,2013-01-10 08:46:00,
2013-01-10 03:47:00,35.6,27.1,30.26,South,172,1.0,7.0,71,0.00,,,0.00,Wunderground v.1.15,2013-01-10 08:47:00,
2013-01-10 03:49:00,35.5,27.0,30.26,South,172,0.0,7.0,71,0.00,,,0.00,Wunderground v.1.15,2013-01-10 08:49:00,
2013-01-10 03:50:00,35.5,27.0,30.26,South,172,3.0,3.0,71,0.00,,,0.00,Wunderground v.1.15,2013-01-10 08:50:00,
2013-01-10 03:51:00,35.5,26.7,30.26,South,172,1.0,7.0,70,0.00,,,0.00,Wunderground v.1.15,2013-01-10 08:51:00,
2013-01-10 03:52:00,35.5,26.3,30.27,South,172,1.0,7.0,69,0.00,,,0.00,Wunderground v.1.15,2013-01-10 08:52:00,
2013-01-10 03:55:00,35.4,26.9,30.27,South,172,1.0,7.0,71,0.00,,,0.00,Wunderground v.1.15,2013-01-10 08:55:00,
2013-01-10 03:56:00,35.4,26.9,30.27,South,172,0.0,7.0,71,0.00,,,0.00,Wunderground v.1.15,2013-01-10 08:56:00,
2013-01-10 03:57:00,35.4,26.9,30.27,South,172,0.0,7.0,71,0.00,,,0.00,Wunderground v.1.15,2013-01-10 08:57:00,
2013-01-10 04:01:00,35.2,26.7,30.27,South,172,4.0,4.0,71,0.00,,,0.00,Wunderground v.1.15,2013-01-10 09:01:00,
2013-01-10 04:02:00,35.2,26.4,30.27,South,172,6.0,6.0,70,0.00,,,0.00,Wunderground v.1.15,2013-01-10 09:02:00,
2013-01-10 04:06:00,35.2,26.7,30.27,South,172,3.0,6.0,71,0.00,,,0.00,Wunderground v.1.15,2013-01-10 09:06:00,
2013-01-10 04:07:00,35.2,26.7,30.27,South,172,4.0,12.0,71,0.00,,,0.00,Wunderground v.1.15,2013-01-10 09:07:00,
2013-01-10 04:11:00,35.0,26.2,30.27,South,172,0.0,4.0,70,0.00,,,0.00,Wunderground v.1.15,2013-01-10 09:11:00,
2013-01-10 04:12:00,35.0,26.2,30.27,South,172,1.0,4.0,70,0.00,,,0.00,Wunderground v.1.15,2013-01-10 09:12:00,
2013-01-10 04:17:00,35.0,26.2,30.28,South,172,0.0,5.0,70,0.00,,,0.00,Wunderground v.1.15,2013-01-10 09:17:00,
2013-01-10 04:22:00,34.8,26.0,30.29,South,172,3.0,3.0,70,0.00,,,0.00,Wunderground v.1.15,2013-01-10 09:22:00,
2013-01-10 04:27:00,34.6,26.2,30.29,South,172,0.0,6.0,71,0.00,,,0.00,Wunderground v.1.15,2013-01-10 09:27:00,
2013-01-10 04:32:00,34.3,26.2,30.29,South,172,4.0,4.0,72,0.00,,,0.00,Wunderground v.1.15,2013-01-10 09:32:00,
2013-01-10 04:37:00,34.2,25.8,30.29,South,172,2.0,17.0,71,0.00,,,0.00,Wunderground v.1.15,2013-01-10 09:37:00,
2013-01-10 04:42:00,34.1,25.3,30.28,South,172,2.0,5.0,70,0.00,,,0.00,Wunderground v.1.15,2013-01-10 09:42:00,
2013-01-10 04:47:00,34.5,25.0,30.30,South,172,2.0,5.0,68,0.00,,,0.00,Wunderground v.1.15,2013-01-10 09:47:00,
2013-01-10 04:48:00,34.5,25.0,30.30,South,172,1.0,5.0,68,0.00,,,0.00,Wunderground v.1.15,2013-01-10 09:48:00,
2013-01-10 04:52:00,34.5,25.0,30.30,South,172,3.0,12.0,68,0.00,,,0.00,Wunderground v.1.15,2013-01-10 09:52:00,
2013-01-10 04:53:00,34.5,25.0,30.29,South,172,2.0,12.0,68,0.00,,,0.00,Wunderground v.1.15,2013-01-10 09:53:00,
2013-01-10 04:57:00,34.6,25.1,30.30,South,172,3.0,12.0,68,0.00,,,0.00,Wunderground v.1.15,2013-01-10 09:57:00,
2013-01-10 04:58:00,34.6,25.1,30.30,South,172,2.0,12.0,68,0.00,,,0.00,Wunderground v.1.15,2013-01-10 09:58:00,
2013-01-10 05:02:00,34.6,25.1,30.31,South,172,3.0,3.0,68,0.00,,,0.00,Wunderground v.1.15,2013-01-10 10:02:00,
2013-01-10 05:03:00,34.5,25.0,30.30,South,172,1.0,3.0,68,0.00,,,0.00,Wunderground v.1.15,2013-01-10 10:03:00,
2013-01-10 05:08:00,34.6,25.5,30.30,South,172,2.0,8.0,69,0.00,,,0.00,Wunderground v.1.15,2013-01-10 10:08:00,
2013-01-10 05:09:00,34.6,25.1,30.31,South,172,1.0,8.0,68,0.00,,,0.00,Wunderground v.1.15,2013-01-10 10:09:00,
2013-01-10 05:13:00,34.7,25.2,30.31,South,172,4.0,7.0,68,0.00,,,0.00,Wunderground v.1.15,2013-01-10 10:13:00,
2013-01-10 05:14:00,34.7,25.2,30.31,South,172,1.0,7.0,68,0.00,,,0.00,Wunderground v.1.15,2013-01-10 10:14:00,
2013-01-10 05:18:00,34.7,24.9,30.31,South,172,1.0,7.0,67,0.00,,,0.00,Wunderground v.1.15,2013-01-10 10:18:00,
2013-01-10 05:19:00,34.7,25.2,30.31,South,172,0.0,7.0,68,0.00,,,0.00,Wunderground v.1.15,2013-01-10 10:19:00,
2013-01-10 05:23:00,34.5,25.4,30.31,South,172,2.0,3.0,69,0.00,,,0.00,Wunderground v.1.15,2013-01-10 10:23:00,
2013-01-10 05:24:00,34.5,25.4,30.31,South,172,1.0,3.0,69,0.00,,,0.00,Wunderground v.1.15,2013-01-10 10:24:00,
2013-01-10 05:28:00,34.3,25.5,30.30,South,172,1.0,3.0,70,0.00,,,0.00,Wunderground v.1.15,2013-01-10 10:28:00,
2013-01-10 05:29:00,34.3,25.2,30.30,South,172,1.0,3.0,69,0.00,,,0.00,Wunderground v.1.15,2013-01-10 10:29:00,
2013-01-10 05:33:00,34.0,24.9,30.30,South,172,0.0,1.0,69,0.00,,,0.00,Wunderground v.1.15,2013-01-10 10:33:00,
2013-01-10 05:34:00,34.0,25.2,30.31,South,172,0.0,1.0,70,0.00,,,0.00,Wunderground v.1.15,2013-01-10 10:34:00,
2013-01-10 05:38:00,33.7,25.0,30.31,South,172,1.0,1.0,70,0.00,,,0.00,Wunderground v.1.15,2013-01-10 10:38:00,
2013-01-10 05:39:00,33.7,25.3,30.31,South,172,0.0,2.0,71,0.00,,,0.00,Wunderground v.1.15,2013-01-10 10:39:00,
2013-01-10 05:40:00,33.6,25.2,30.31,South,172,0.0,0.0,71,0.00,,,0.00,Wunderground v.1.15,2013-01-10 10:40:00,
2013-01-10 05:43:00,33.3,25.2,30.31,South,172,0.0,1.0,72,0.00,,,0.00,Wunderground v.1.15,2013-01-10 10:43:00,
2013-01-10 05:44:00,33.2,25.1,30.31,South,172,1.0,2.0,72,0.00,,,0.00,Wunderground v.1.15,2013-01-10 10:44:00,
2013-01-10 05:45:00,33.1,25.1,30.31,South,172,1.0,3.0,72,0.00,,,0.00,Wunderground v.1.15,2013-01-10 10:45:00,
2013-01-10 05:48:00,32.8,25.1,30.32,South,172,0.0,3.0,73,0.00,,,0.00,Wunderground v.1.15,2013-01-10 10:48:00,
2013-01-10 05:49:00,32.7,25.0,30.33,South,172,0.0,3.0,73,0.00,,,0.00,Wunderground v.1.15,2013-01-10 10:49:00,
2013-01-10 05:50:00,32.7,25.0,30.33,South,172,0.0,1.0,73,0.00,,,0.00,Wunderground v.1.15,2013-01-10 10:50:00,
2013-01-10 05:54:00,32.6,24.9,30.33,South,172,0.0,1.0,73,0.00,,,0.00,Wunderground v.1.15,2013-01-10 10:54:00,
2013-01-10 05:55:00,32.5,24.8,30.33,South,172,0.0,1.0,73,0.00,,,0.00,Wunderground v.1.15,2013-01-10 10:55:00,
2013-01-10 05:59:00,32.4,25.4,30.33,South,172,0.0,1.0,75,0.00,,,0.00,Wunderground v.1.15,2013-01-10 10:59:00,
2013-01-10 06:01:00,32.3,25.3,30.34,South,172,0.0,0.0,75,0.00,,,0.00,Wunderground v.1.15,2013-01-10 11:01:00,
2013-01-10 06:04:00,32.2,25.2,30.34,South,172,0.0,1.0,75,0.00,,,0.00,Wunderground v.1.15,2013-01-10 11:04:00,
2013-01-10 06:06:00,32.2,24.8,30.34,South,172,1.0,1.0,74,0.00,,,0.00,Wunderground v.1.15,2013-01-10 11:06:00,
2013-01-10 06:07:00,32.1,24.7,30.34,South,172,0.0,1.0,74,0.00,,,0.00,Wunderground v.1.15,2013-01-10 11:07:00,
2013-01-10 06:09:00,32.2,25.2,30.34,South,172,0.0,1.0,75,0.00,,,0.00,Wunderground v.1.15,2013-01-10 11:09:00,
2013-01-10 06:11:00,32.1,25.1,30.34,South,172,1.0,1.0,75,0.00,,,0.00,Wunderground v.1.15,2013-01-10 11:11:00,
2013-01-10 06:12:00,32.1,25.1,30.34,South,172,2.0,2.0,75,0.00,,,0.00,Wunderground v.1.15,2013-01-10 11:12:00,
2013-01-10 06:14:00,32.2,24.8,30.34,South,172,1.0,2.0,74,0.00,,,0.00,Wunderground v.1.15,2013-01-10 11:14:00,
2013-01-10 06:16:00,32.2,25.2,30.35,South,172,2.0,3.0,75,0.00,,,0.00,Wunderground v.1.15,2013-01-10 11:16:00,
2013-01-10 06:17:00,32.2,25.2,30.35,South,172,0.0,3.0,75,0.00,,,0.00,Wunderground v.1.15,2013-01-10 11:17:00,
2013-01-10 06:19:00,32.1,25.1,30.35,South,172,0.0,3.0,75,0.00,,,0.00,Wunderground v.1.15,2013-01-10 11:19:00,
2013-01-10 06:22:00,32.1,24.7,30.35,South,172,0.0,1.0,74,0.00,,,0.00,Wunderground v.1.15,2013-01-10 11:22:00,
2013-01-10 06:24:00,32.2,25.2,30.35,South,172,2.0,2.0,75,0.00,,,0.00,Wunderground v.1.15,2013-01-10 11:24:00,
2013-01-10 06:27:00,32.0,25.0,30.35,South,172,0.0,3.0,75,0.00,,,0.00,Wunderground v.1.15,2013-01-10 11:27:00,
2013-01-10 06:29:00,31.9,24.9,30.35,South,172,3.0,3.0,75,0.00,,,0.00,Wunderground v.1.15,2013-01-10 11:29:00,
2013-01-10 06:32:00,31.8,24.5,30.35,South,172,0.0,2.0,74,0.00,,,0.00,Wunderground v.1.15,2013-01-10 11:32:00,
2013-01-10 06:34:00,31.8,24.5,30.35,South,172,1.0,3.0,74,0.00,,,0.00,Wunderground v.1.15,2013-01-10 11:34:00,
2013-01-10 06:37:00,31.8,24.5,30.35,South,172,0.0,3.0,74,0.00,,,0.00,Wunderground v.1.15,2013-01-10 11:37:00,
2013-01-10 06:38:00,31.8,24.5,30.35,South,172,1.0,3.0,74,0.00,,,0.00,Wunderground v.1.15,2013-01-10 11:38:00,
2013-01-10 06:40:00,31.8,24.1,30.35,South,172,0.0,9.0,73,0.00,,,0.00,Wunderground v.1.15,2013-01-10 11:40:00,
2013-01-10 06:42:00,31.8,23.8,30.35,South,172,0.0,4.0,72,0.00,,,0.00,Wunderground v.1.15,2013-01-10 11:42:00,
2013-01-10 06:43:00,31.8,23.8,30.35,South,172,1.0,4.0,72,0.00,,,0.00,Wunderground v.1.15,2013-01-10 11:43:00,
2013-01-10 06:45:00,31.9,23.9,30.36,South,172,0.0,4.0,72,0.00,,,0.00,Wunderground v.1.15,2013-01-10 11:45:00,
2013-01-10 06:47:00,31.9,23.9,30.36,South,172,0.0,4.0,72,0.00,,,0.00,Wunderground v.1.15,2013-01-10 11:47:00,
2013-01-10 06:48:00,31.9,23.9,30.36,South,172,1.0,4.0,72,0.00,,,0.00,Wunderground v.1.15,2013-01-10 11:48:00,
2013-01-10 06:49:00,31.8,24.1,30.36,South,172,0.0,4.0,73,0.00,,,0.00,Wunderground v.1.15,2013-01-10 11:49:00,
2013-01-10 06:50:00,31.8,23.8,30.36,South,172,0.0,4.0,72,0.00,,,0.00,Wunderground v.1.15,2013-01-10 11:50:00,
2013-01-10 06:52:00,31.6,23.9,30.36,South,172,0.0,5.0,73,0.00,,,0.00,Wunderground v.1.15,2013-01-10 11:52:00,
2013-01-10 06:53:00,31.6,23.9,30.37,South,172,0.0,5.0,73,0.00,,,0.00,Wunderground v.1.15,2013-01-10 11:53:00,
2013-01-10 06:54:00,31.5,23.8,30.37,South,172,0.0,5.0,73,0.00,,,0.00,Wunderground v.1.15,2013-01-10 11:54:00,
2013-01-10 06:55:00,31.5,23.8,30.37,South,172,0.0,5.0,73,0.00,,,0.00,Wunderground v.1.15,2013-01-10 11:55:00,
2013-01-10 06:57:00,31.3,23.6,30.37,South,172,0.0,5.0,73,0.00,,,0.00,Wunderground v.1.15,2013-01-10 11:57:00,
2013-01-10 06:58:00,31.2,23.9,30.37,South,172,1.0,5.0,74,0.00,,,0.00,Wunderground v.1.15,2013-01-10 11:58:00,
2013-01-10 06:59:00,31.2,23.5,30.38,South,172,0.0,5.0,73,0.00,,,0.00,Wunderground v.1.15,2013-01-10 11:59:00,
2013-01-10 07:02:00,31.1,23.5,30.38,South,172,0.0,1.0,73,0.00,,,0.00,Wunderground v.1.15,2013-01-10 12:02:00,
2013-01-10 07:03:00,31.1,23.8,30.38,South,172,0.0,1.0,74,0.00,,,0.00,Wunderground v.1.15,2013-01-10 12:03:00,
2013-01-10 07:04:00,31.0,23.7,30.38,South,172,3.0,3.0,74,0.00,,,0.00,Wunderground v.1.15,2013-01-10 12:04:00,
2013-01-10 07:07:00,30.9,23.6,30.38,South,172,0.0,3.0,74,0.00,,,0.00,Wunderground v.1.15,2013-01-10 12:07:00,
2013-01-10 07:08:00,30.9,23.6,30.38,South,172,1.0,3.0,74,0.00,,,0.00,Wunderground v.1.15,2013-01-10 12:08:00,
2013-01-10 07:09:00,30.9,23.6,30.39,South,172,1.0,3.0,74,0.00,,,0.00,Wunderground v.1.15,2013-01-10 12:09:00,
2013-01-10 07:12:00,30.9,23.6,30.38,South,172,0.0,2.0,74,0.00,,,0.00,Wunderground v.1.15,2013-01-10 12:12:00,
2013-01-10 07:13:00,30.9,23.6,30.39,South,172,0.0,2.0,74,0.00,,,0.00,Wunderground v.1.15,2013-01-10 12:13:00,
2013-01-10 07:14:00,30.9,23.6,30.39,South,172,0.0,2.0,74,0.00,,,0.00,Wunderground v.1.15,2013-01-10 12:14:00,
2013-01-10 07:17:00,30.8,23.5,30.39,South,172,1.0,2.0,74,0.00,,,0.00,Wunderground v.1.15,2013-01-10 12:17:00,
2013-01-10 07:18:00,30.9,23.6,30.39,South,172,0.0,2.0,74,0.00,,,0.00,Wunderground v.1.15,2013-01-10 12:18:00,
2013-01-10 07:19:00,30.8,23.5,30.39,South,172,0.0,2.0,74,0.00,,,0.00,Wunderground v.1.15,2013-01-10 12:19:00,
2013-01-10 07:22:00,30.6,23.3,30.39,South,172,1.0,2.0,74,0.00,,,0.00,Wunderground v.1.15,2013-01-10 12:22:00,
2013-01-10 07:23:00,30.6,23.6,30.39,South,172,0.0,2.0,75,0.00,,,0.00,Wunderground v.1.15,2013-01-10 12:23:00,
2013-01-10 07:24:00,30.5,23.5,30.39,South,172,0.0,2.0,75,0.00,,,0.00,Wunderground v.1.15,2013-01-10 12:24:00,
2013-01-10 07:28:00,30.4,23.4,30.39,South,172,0.0,2.0,75,0.00,,,0.00,Wunderground v.1.15,2013-01-10 12:28:00,
2013-01-10 07:29:00,30.3,23.3,30.39,South,172,1.0,2.0,75,0.00,,,0.00,Wunderground v.1.15,2013-01-10 12:29:00,
2013-01-10 07:33:00,30.2,23.2,30.40,South,172,1.0,2.0,75,0.00,,,0.00,Wunderground v.1.15,2013-01-10 12:33:00,
2013-01-10 07:34:00,30.2,23.2,30.40,South,172,1.0,2.0,75,0.00,,,0.00,Wunderground v.1.15,2013-01-10 12:34:00,
2013-01-10 07:35:00,30.2,23.2,30.40,South,172,0.0,2.0,75,0.00,,,0.00,Wunderground v.1.15,2013-01-10 12:35:00,
2013-01-10 07:38:00,30.1,23.1,30.40,South,172,1.0,3.0,75,0.00,,,0.00,Wunderground v.1.15,2013-01-10 12:38:00,
2013-01-10 07:39:00,30.1,23.1,30.40,South,172,1.0,3.0,75,0.00,,,0.00,Wunderground v.1.15,2013-01-10 12:39:00,
2013-01-10 07:40:00,30.1,23.1,30.40,South,172,2.0,2.0,75,0.00,,,0.00,Wunderground v.1.15,2013-01-10 12:40:00,
2013-01-10 07:43:00,30.2,23.2,30.40,South,172,0.0,2.0,75,0.00,,,0.00,Wunderground v.1.15,2013-01-10 12:43:00,
2013-01-10 07:44:00,30.2,23.2,30.40,South,172,0.0,2.0,75,0.00,,,0.00,Wunderground v.1.15,2013-01-10 12:44:00,
2013-01-10 07:45:00,30.3,23.3,30.40,South,172,0.0,2.0,75,0.00,,,0.00,Wunderground v.1.15,2013-01-10 12:45:00,
2013-01-10 07:48:00,30.6,23.3,30.40,South,172,0.0,5.0,74,0.00,,,0.00,Wunderground v.1.15,2013-01-10 12:48:00,
2013-01-10 07:50:00,30.6,23.3,30.40,South,172,0.0,1.0,74,0.00,,,0.00,Wunderground v.1.15,2013-01-10 12:50:00,
2013-01-10 07:53:00,30.7,23.4,30.39,South,172,1.0,6.0,74,0.00,,,0.00,Wunderground v.1.15,2013-01-10 12:53:00,
2013-01-10 07:54:00,30.7,23.4,30.40,South,172,2.0,6.0,74,0.00,,,0.00,Wunderground v.1.15,2013-01-10 12:54:00,
2013-01-10 07:55:00,30.8,23.5,30.40,South,172,3.0,6.0,74,0.00,,,0.00,Wunderground v.1.15,2013-01-10 12:55:00,
2013-01-10 07:59:00,31.3,23.6,30.40,South,172,0.0,6.0,73,0.00,,,0.00,Wunderground v.1.15,2013-01-10 12:59:00,
2013-01-10 08:01:00,31.4,23.4,30.40,South,172,1.0,3.0,72,0.00,,,0.00,Wunderground v.1.15,2013-01-10 13:01:00,
2013-01-10 08:04:00,31.9,23.6,30.40,South,172,1.0,5.0,71,0.00,,,0.00,Wunderground v.1.15,2013-01-10 13:04:00,
2013-01-10 08:06:00,32.2,23.8,30.40,South,172,0.0,5.0,71,0.00,,,0.00,Wunderground v.1.15,2013-01-10 13:06:00,
2013-01-10 08:09:00,32.3,23.6,30.40,South,172,2.0,12.0,70,0.00,,,0.00,Wunderground v.1.15,2013-01-10 13:09:00,
2013-01-10 08:11:00,32.4,24.0,30.40,South,172,3.0,3.0,71,0.00,,,0.00,Wunderground v.1.15,2013-01-10 13:11:00,
2013-01-10 08:14:00,32.5,23.5,30.40,South,172,2.0,6.0,69,0.00,,,0.00,Wunderground v.1.15,2013-01-10 13:14:00,
2013-01-10 08:16:00,32.7,23.6,30.40,South,172,2.0,7.0,69,0.00,,,0.00,Wunderground v.1.15,2013-01-10 13:16:00,
2013-01-10 08:19:00,32.9,23.8,30.40,South,172,5.0,7.0,69,0.00,,,0.00,Wunderground v.1.15,2013-01-10 13:19:00,
2013-01-10 08:21:00,33.0,23.9,30.40,South,172,1.0,4.0,69,0.00,,,0.00,Wunderground v.1.15,2013-01-10 13:21:00,
2013-01-10 08:24:00,33.0,23.6,30.40,South,172,1.0,4.0,68,0.00,,,0.00,Wunderground v.1.15,2013-01-10 13:24:00,
2013-01-10 08:27:00,33.2,23.8,30.40,South,172,2.0,4.0,68,0.00,,,0.00,Wunderground v.1.15,2013-01-10 13:27:00,
2013-01-10 08:29:00,33.2,23.8,30.41,South,172,1.0,4.0,68,0.00,,,0.00,Wunderground v.1.15,2013-01-10 13:29:00,
2013-01-10 08:32:00,33.4,24.0,30.40,South,172,3.0,8.0,68,0.00,,,0.00,Wunderground v.1.15,2013-01-10 13:32:00,
2013-01-10 08:34:00,33.5,23.7,30.41,South,172,1.0,8.0,67,0.00,,,0.00,Wunderground v.1.15,2013-01-10 13:34:00,
2013-01-10 08:37:00,33.7,23.9,30.41,South,172,5.0,8.0,67,0.00,,,0.00,Wunderground v.1.15,2013-01-10 13:37:00,
2013-01-10 08:39:00,33.7,23.9,30.41,South,172,2.0,2.0,67,0.00,,,0.00,Wunderground v.1.15,2013-01-10 13:39:00,
2013-01-10 08:40:00,33.7,23.9,30.41,South,172,2.0,2.0,67,0.00,,,0.00,Wunderground v.1.15,2013-01-10 13:40:00,
2013-01-10 08:42:00,33.8,23.6,30.41,South,172,0.0,5.0,66,0.00,,,0.00,Wunderground v.1.15,2013-01-10 13:42:00,
2013-01-10 08:45:00,34.1,23.9,30.41,South,172,2.0,5.0,66,0.00,,,0.00,Wunderground v.1.15,2013-01-10 13:45:00,
2013-01-10 08:47:00,34.2,24.0,30.41,South,172,1.0,5.0,66,0.00,,,0.00,Wunderground v.1.15,2013-01-10 13:47:00,
2013-01-10 08:50:00,34.3,23.7,30.41,South,172,1.0,2.0,65,0.00,,,0.00,Wunderground v.1.15,2013-01-10 13:50:00,
2013-01-10 08:52:00,34.4,23.8,30.41,South,172,1.0,4.0,65,0.00,,,0.00,Wunderground v.1.15,2013-01-10 13:52:00,
2013-01-10 08:55:00,34.4,24.6,30.41,South,172,3.0,5.0,67,0.00,,,0.00,Wunderground v.1.15,2013-01-10 13:55:00,
2013-01-10 08:57:00,34.4,24.2,30.41,South,172,4.0,5.0,66,0.00,,,0.00,Wunderground v.1.15,2013-01-10 13:57:00,
2013-01-10 09:01:00,34.5,23.9,30.41,South,172,2.0,5.0,65,0.00,,,0.00,Wunderground v.1.15,2013-01-10 14:01:00,
2013-01-10 09:02:00,34.5,23.9,30.41,South,172,1.0,5.0,65,0.00,,,0.00,Wunderground v.1.15,2013-01-10 14:02:00,
2013-01-10 09:03:00,34.5,24.3,30.41,South,172,3.0,6.0,66,0.00,,,0.00,Wunderground v.1.15,2013-01-10 14:03:00,
2013-01-10 09:07:00,34.6,24.0,30.41,South,172,2.0,6.0,65,0.00,,,0.00,Wunderground v.1.15,2013-01-10 14:07:00,
2013-01-10 09:08:00,34.7,24.1,30.41,South,172,4.0,6.0,65,0.00,,,0.00,Wunderground v.1.15,2013-01-10 14:08:00,
2013-01-10 09:12:00,34.8,24.2,30.41,South,172,2.0,5.0,65,0.00,,,0.00,Wunderground v.1.15,2013-01-10 14:12:00,
2013-01-10 09:13:00,34.9,23.9,30.41,South,172,2.0,5.0,64,0.00,,,0.00,Wunderground v.1.15,2013-01-10 14:13:00,
2013-01-10 09:17:00,35.1,24.1,30.42,South,172,0.0,6.0,64,0.00,,,0.00,Wunderground v.1.15,2013-01-10 14:17:00,
2013-01-10 09:18:00,35.2,24.2,30.42,South,172,1.0,7.0,64,0.00,,,0.00,Wunderground v.1.15,2013-01-10 14:18:00,
2013-01-10 09:22:00,35.4,24.4,30.42,South,172,2.0,7.0,64,0.00,,,0.00,Wunderground v.1.15,2013-01-10 14:22:00,
2013-01-10 09:23:00,35.4,24.4,30.42,South,172,1.0,7.0,64,0.00,,,0.00,Wunderground v.1.15,2013-01-10 14:23:00,
2013-01-10 09:27:00,35.5,24.1,30.42,South,172,5.0,11.0,63,0.00,,,0.00,Wunderground v.1.15,2013-01-10 14:27:00,
2013-01-10 09:28:00,35.5,24.1,30.43,South,172,0.0,11.0,63,0.00,,,0.00,Wunderground v.1.15,2013-01-10 14:28:00,
2013-01-10 09:32:00,35.6,24.2,30.43,South,172,2.0,5.0,63,0.00,,,0.00,Wunderground v.1.15,2013-01-10 14:32:00,
2013-01-10 09:33:00,35.7,24.3,30.43,South,172,4.0,5.0,63,0.00,,,0.00,Wunderground v.1.15,2013-01-10 14:33:00,
2013-01-10 09:34:00,35.7,24.7,30.43,South,172,1.0,5.0,64,0.00,,,0.00,Wunderground v.1.15,2013-01-10 14:34:00,
2013-01-10 09:37:00,35.8,24.4,30.42,South,172,0.0,5.0,63,0.00,,,0.00,Wunderground v.1.15,2013-01-10 14:37:00,
2013-01-10 09:38:00,35.9,24.5,30.42,South,172,2.0,5.0,63,0.00,,,0.00,Wunderground v.1.15,2013-01-10 14:38:00,
2013-01-10 09:39:00,36.0,24.6,30.42,South,172,2.0,7.0,63,0.00,,,0.00,Wunderground v.1.15,2013-01-10 14:39:00,
2013-01-10 09:42:00,36.1,25.1,30.42,South,172,4.0,7.0,64,0.00,,,0.00,Wunderground v.1.15,2013-01-10 14:42:00,
2013-01-10 09:43:00,36.2,24.8,30.43,South,172,1.0,7.0,63,0.00,,,0.00,Wunderground v.1.15,2013-01-10 14:43:00,
2013-01-10 09:44:00,36.2,24.4,30.43,South,172,0.0,7.0,62,0.00,,,0.00,Wunderground v.1.15,2013-01-10 14:44:00,
2013-01-10 09:47:00,36.3,24.9,30.43,South,172,2.0,7.0,63,0.00,,,0.00,Wunderground v.1.15,2013-01-10 14:47:00,
2013-01-10 09:48:00,36.4,25.0,30.43,South,172,2.0,7.0,63,0.00,,,0.00,Wunderground v.1.15,2013-01-10 14:48:00,
2013-01-10 09:49:00,36.3,24.9,30.43,South,172,1.0,7.0,63,0.00,,,0.00,Wunderground v.1.15,2013-01-10 14:49:00,
2013-01-10 09:52:00,36.5,25.1,30.44,South,172,1.0,12.0,63,0.00,,,0.00,Wunderground v.1.15,2013-01-10 14:52:00,
2013-01-10 09:53:00,36.5,24.7,30.43,South,172,1.0,12.0,62,0.00,,,0.00,Wunderground v.1.15,2013-01-10 14:53:00,
2013-01-10 09:54:00,36.5,24.7,30.43,South,172,3.0,12.0,62,0.00,,,0.00,Wunderground v.1.15,2013-01-10 14:54:00,
2013-01-10 09:57:00,36.8,24.6,30.43,South,172,0.0,12.0,61,0.00,,,0.00,Wunderground v.1.15,2013-01-10 14:57:00,
2013-01-10 09:59:00,36.9,25.1,30.43,South,172,3.0,12.0,62,0.00,,,0.00,Wunderground v.1.15,2013-01-10 14:59:00,
2013-01-10 10:02:00,37.0,25.2,30.43,South,172,1.0,5.0,62,0.00,,,0.00,Wunderground v.1.15,2013-01-10 15:02:00,
2013-01-10 10:04:00,37.1,24.9,30.43,South,172,2.0,5.0,61,0.00,,,0.00,Wunderground v.1.15,2013-01-10 15:04:00,
2013-01-10 10:07:00,37.1,24.5,30.43,South,172,3.0,7.0,60,0.00,,,0.00,Wunderground v.1.15,2013-01-10 15:07:00,
2013-01-10 10:09:00,37.1,24.9,30.43,South,172,1.0,7.0,61,0.00,,,0.00,Wunderground v.1.15,2013-01-10 15:09:00,
2013-01-10 10:13:00,37.2,24.6,30.43,South,172,5.0,13.0,60,0.00,,,0.00,Wunderground v.1.15,2013-01-10 15:13:00,
2013-01-10 10:14:00,37.1,24.9,30.43,South,172,7.0,13.0,61,0.00,,,0.00,Wunderground v.1.15,2013-01-10 15:14:00,
2013-01-10 10:15:00,37.1,24.9,30.43,South,172,2.0,13.0,61,0.00,,,0.00,Wunderground v.1.15,2013-01-10 15:15:00,
2013-01-10 10:18:00,37.1,24.5,30.44,South,172,2.0,13.0,60,0.00,,,0.00,Wunderground v.1.15,2013-01-10 15:18:00,
2013-01-10 10:19:00,37.1,24.9,30.44,South,172,2.0,13.0,61,0.00,,,0.00,Wunderground v.1.15,2013-01-10 15:19:00,
2013-01-10 10:20:00,37.1,24.9,30.44,South,172,4.0,4.0,61,0.00,,,0.00,Wunderground v.1.15,2013-01-10 15:20:00,
2013-01-10 10:23:00,37.2,24.6,30.44,South,172,2.0,10.0,60,0.00,,,0.00,Wunderground v.1.15,2013-01-10 15:23:00,
2013-01-10 10:24:00,37.3,25.1,30.43,South,172,1.0,10.0,61,0.00,,,0.00,Wunderground v.1.15,2013-01-10 15:24:00,
2013-01-10 10:25:00,37.3,25.1,30.43,South,172,3.0,10.0,61,0.00,,,0.00,Wunderground v.1.15,2013-01-10 15:25:00,
2013-01-10 10:28:00,37.4,25.2,30.43,South,172,3.0,10.0,61,0.00,,,0.00,Wunderground v.1.15,2013-01-10 15:28:00,
2013-01-10 10:29:00,37.4,25.2,30.43,South,172,0.0,10.0,61,0.00,,,0.00,Wunderground v.1.15,2013-01-10 15:29:00,
2013-01-10 10:30:00,37.4,25.2,30.43,South,172,2.0,3.0,61,0.00,,,0.00,Wunderground v.1.15,2013-01-10 15:30:00,
2013-01-10 10:31:00,37.5,25.3,30.43,South,172,5.0,5.0,61,0.00,,,0.00,Wunderground v.1.15,2013-01-10 15:31:00,
2013-01-10 10:33:00,37.6,25.4,30.43,South,172,3.0,6.0,61,0.00,,,0.00,Wunderground v.1.15,2013-01-10 15:33:00,
2013-01-10 10:34:00,37.6,25.0,30.43,South,172,5.0,6.0,60,0.00,,,0.00,Wunderground v.1.15,2013-01-10 15:34:00,
2013-01-10 10:35:00,37.7,25.1,30.43,South,172,2.0,7.0,60,0.00,,,0.00,Wunderground v.1.15,2013-01-10 15:35:00,
2013-01-10 10:36:00,37.7,25.1,30.43,South,172,1.0,7.0,60,0.00,,,0.00,Wunderground v.1.15,2013-01-10 15:36:00,
2013-01-10 10:38:00,37.8,24.7,30.43,South,172,1.0,8.0,59,0.00,,,0.00,Wunderground v.1.15,2013-01-10 15:38:00,
2013-01-10 10:39:00,37.8,24.7,30.43,South,172,2.0,8.0,59,0.00,,,0.00,Wunderground v.1.15,2013-01-10 15:39:00,
2013-01-10 10:40:00,37.9,25.2,30.43,South,172,2.0,7.0,60,0.00,,,0.00,Wunderground v.1.15,2013-01-10 15:40:00,
2013-01-10 10:41:00,37.9,25.2,30.44,South,172,1.0,7.0,60,0.00,,,0.00,Wunderground v.1.15,2013-01-10 15:41:00,
2013-01-10 10:44:00,37.9,24.8,30.44,South,172,1.0,7.0,59,0.00,,,0.00,Wunderground v.1.15,2013-01-10 15:44:00,
2013-01-10 10:45:00,38.0,24.9,30.44,South,172,3.0,7.0,59,0.00,,,0.00,Wunderground v.1.15,2013-01-10 15:45:00,
2013-01-10 10:46:00,38.0,24.9,30.44,South,172,1.0,7.0,59,0.00,,,0.00,Wunderground v.1.15,2013-01-10 15:46:00,
2013-01-10 10:49:00,38.3,24.8,30.45,South,172,1.0,7.0,58,0.00,,,0.00,Wunderground v.1.15,2013-01-10 15:49:00,
2013-01-10 10:51:00,38.4,24.9,30.45,South,172,7.0,7.0,58,0.00,,,0.00,Wunderground v.1.15,2013-01-10 15:51:00,
2013-01-10 10:54:00,38.3,25.2,30.45,South,172,1.0,9.0,59,0.00,,,0.00,Wunderground v.1.15,2013-01-10 15:54:00,
2013-01-10 10:55:00,38.3,25.2,30.45,South,172,2.0,9.0,59,0.00,,,0.00,Wunderground v.1.15,2013-01-10 15:55:00,
2013-01-10 10:56:00,38.3,24.8,30.45,South,172,2.0,9.0,58,0.00,,,0.00,Wunderground v.1.15,2013-01-10 15:56:00,
2013-01-10 10:59:00,38.5,25.4,30.44,South,172,1.0,9.0,59,0.00,,,0.00,Wunderground v.1.15,2013-01-10 15:59:00,
2013-01-10 11:00:00,38.5,25.4,30.45,South,172,2.0,2.0,59,0.00,,,0.00,Wunderground v.1.15,2013-01-10 16:00:00,
2013-01-10 11:02:00,38.6,24.7,30.44,South,172,4.0,7.0,57,0.00,,,0.00,Wunderground v.1.15,2013-01-10 16:02:00,
2013-01-10 11:04:00,38.7,24.8,30.44,South,172,3.0,7.0,57,0.00,,,0.00,Wunderground v.1.15,2013-01-10 16:04:00,
2013-01-10 11:05:00,38.7,24.8,30.45,South,172,3.0,7.0,57,0.00,,,0.00,Wunderground v.1.15,2013-01-10 16:05:00,
2013-01-10 11:07:00,38.7,24.8,30.45,South,172,3.0,7.0,57,0.00,,,0.00,Wunderground v.1.15,2013-01-10 16:07:00,
2013-01-10 11:10:00,38.9,25.4,30.44,South,172,3.0,3.0,58,0.00,,,0.00,Wunderground v.1.15,2013-01-10 16:10:00,
2013-01-10 11:12:00,38.8,24.9,30.44,South,172,0.0,7.0,57,0.00,,,0.00,Wunderground v.1.15,2013-01-10 16:12:00,
2013-01-10 11:13:00,38.9,24.9,30.44,South,172,4.0,7.0,57,0.00,,,0.00,Wunderground v.1.15,2013-01-10 16:13:00,
2013-01-10 11:15:00,38.9,24.9,30.44,South,172,1.0,7.0,57,0.00,,,0.00,Wunderground v.1.15,2013-01-10 16:15:00,
2013-01-10 11:17:00,39.0,25.5,30.43,South,172,3.0,7.0,58,0.00,,,0.00,Wunderground v.1.15,2013-01-10 16:17:00,
2013-01-10 11:18:00,39.0,25.0,30.43,South,172,1.0,7.0,57,0.00,,,0.00,Wunderground v.1.15,2013-01-10 16:18:00,
2013-01-10 11:20:00,39.1,24.7,30.44,South,172,0.0,2.0,56,0.00,,,0.00,Wunderground v.1.15,2013-01-10 16:20:00,
2013-01-10 11:21:00,39.2,25.2,30.43,South,172,4.0,4.0,57,0.00,,,0.00,Wunderground v.1.15,2013-01-10 16:21:00,
2013-01-10 11:23:00,39.3,24.9,30.44,South,172,3.0,9.0,56,0.00,,,0.00,Wunderground v.1.15,2013-01-10 16:23:00,
2013-01-10 11:25:00,39.3,25.3,30.44,South,172,1.0,9.0,57,0.00,,,0.00,Wunderground v.1.15,2013-01-10 16:25:00,
2013-01-10 11:27:00,39.2,25.2,30.43,South,172,1.0,9.0,57,0.00,,,0.00,Wunderground v.1.15,2013-01-10 16:27:00,
2013-01-10 11:28:00,39.3,25.3,30.43,South,172,3.0,9.0,57,0.00,,,0.00,Wunderground v.1.15,2013-01-10 16:28:00,
2013-01-10 11:29:00,39.3,25.3,30.44,South,172,1.0,9.0,57,0.00,,,0.00,Wunderground v.1.15,2013-01-10 16:29:00,
2013-01-10 11:31:00,39.4,25.0,30.44,South,172,2.0,2.0,56,0.00,,,0.00,Wunderground v.1.15,2013-01-10 16:31:00,
2013-01-10 11:32:00,39.4,25.4,30.44,South,172,3.0,5.0,57,0.00,,,0.00,Wunderground v.1.15,2013-01-10 16:32:00,
2013-01-10 11:33:00,39.4,25.0,30.44,South,172,1.0,5.0,56,0.00,,,0.00,Wunderground v.1.15,2013-01-10 16:33:00,
2013-01-10 11:34:00,39.5,25.1,30.44,South,172,1.0,5.0,56,0.00,,,0.00,Wunderground v.1.15,2013-01-10 16:34:00,
2013-01-10 11:36:00,39.5,25.1,30.44,South,172,3.0,5.0,56,0.00,,,0.00,Wunderground v.1.15,2013-01-10 16:36:00,
2013-01-10 11:37:00,39.6,25.2,30.44,South,172,10.0,10.0,56,0.00,,,0.00,Wunderground v.1.15,2013-01-10 16:37:00,
2013-01-10 11:38:00,39.6,25.6,30.44,South,172,2.0,10.0,57,0.00,,,0.00,Wunderground v.1.15,2013-01-10 16:38:00,
2013-01-10 11:39:00,39.7,25.3,30.44,South,172,3.0,10.0,56,0.00,,,0.00,Wunderground v.1.15,2013-01-10 16:39:00,
2013-01-10 11:41:00,39.8,25.4,30.44,South,172,0.0,3.0,56,0.00,,,0.00,Wunderground v.1.15,2013-01-10 16:41:00,
2013-01-10 11:42:00,39.9,25.9,30.44,South,172,4.0,5.0,57,0.00,,,0.00,Wunderground v.1.15,2013-01-10 16:42:00,
2013-01-10 11:43:00,39.9,25.5,30.44,South,172,1.0,5.0,56,0.00,,,0.00,Wunderground v.1.15,2013-01-10 16:43:00,
2013-01-10 11:44:00,39.9,25.5,30.43,South,172,1.0,5.0,56,0.00,,,0.00,Wunderground v.1.15,2013-01-10 16:44:00,
2013-01-10 11:46:00,40.0,25.1,30.43,South,172,4.0,5.0,55,0.00,,,0.00,Wunderground v.1.15,2013-01-10 16:46:00,
2013-01-10 11:47:00,40.0,25.1,30.43,South,172,2.0,5.0,55,0.00,,,0.00,Wunderground v.1.15,2013-01-10 16:47:00,
2013-01-10 11:48:00,40.0,25.1,30.43,South,172,4.0,5.0,55,0.00,,,0.00,Wunderground v.1.15,2013-01-10 16:48:00,
2013-01-10 11:49:00,40.0,25.6,30.43,South,172,2.0,5.0,56,0.00,,,0.00,Wunderground v.1.15,2013-01-10 16:49:00,
2013-01-10 11:51:00,40.0,25.1,30.43,South,172,2.0,5.0,55,0.00,,,0.00,Wunderground v.1.15,2013-01-10 16:51:00,
2013-01-10 11:52:00,40.1,25.2,30.43,South,172,1.0,5.0,55,0.00,,,0.01,Wunderground v.1.15,2013-01-10 16:52:00,
2013-01-10 11:53:00,40.1,24.8,30.43,South,172,3.0,5.0,54,0.00,,,0.01,Wunderground v.1.15,2013-01-10 16:53:00,
2013-01-10 11:54:00,40.2,25.3,30.43,South,172,1.0,5.0,55,0.00,,,0.01,Wunderground v.1.15,2013-01-10 16:54:00,
2013-01-10 11:56:00,40.3,25.0,30.43,South,172,2.0,5.0,54,0.00,,,0.01,Wunderground v.1.15,2013-01-10 16:56:00,
2013-01-10 11:57:00,40.5,25.6,30.43,South,172,2.0,5.0,55,0.00,,,0.01,Wunderground v.1.15,2013-01-10 16:57:00,
2013-01-10 11:58:00,40.5,25.6,30.43,South,172,1.0,5.0,55,0.00,,,0.01,Wunderground v.1.15,2013-01-10 16:58:00,
2013-01-10 11:59:00,40.6,25.2,30.43,South,172,3.0,9.0,54,0.00,,,0.01,Wunderground v.1.15,2013-01-10 16:59:00,
2013-01-10 12:01:00,40.6,25.2,30.43,South,172,0.0,10.0,54,0.00,,,0.01,Wunderground v.1.15,2013-01-10 17:01:00,
2013-01-10 12:03:00,40.6,25.2,30.43,South,172,3.0,10.0,54,0.00,,,0.01,Wunderground v.1.15,2013-01-10 17:03:00,
2013-01-10 12:04:00,40.6,24.8,30.43,South,172,2.0,10.0,53,0.00,,,0.01,Wunderground v.1.15,2013-01-10 17:04:00,
2013-01-10 12:06:00,40.6,25.2,30.43,South,172,3.0,10.0,54,0.00,,,0.01,Wunderground v.1.15,2013-01-10 17:06:00,
2013-01-10 12:08:00,40.6,24.8,30.43,South,172,3.0,10.0,53,0.00,,,0.01,Wunderground v.1.15,2013-01-10 17:08:00,
2013-01-10 12:09:00,40.6,24.8,30.43,South,172,2.0,10.0,53,0.00,,,0.01,Wunderground v.1.15,2013-01-10 17:09:00,
2013-01-10 12:12:00,40.8,25.4,30.43,South,172,1.0,2.0,54,0.00,,,0.01,Wunderground v.1.15,2013-01-10 17:12:00,
2013-01-10 12:13:00,41.0,26.1,30.43,South,172,1.0,2.0,55,0.00,,,0.01,Wunderground v.1.15,2013-01-10 17:13:00,
2013-01-10 12:14:00,41.1,26.1,30.43,South,172,1.0,5.0,55,0.00,,,0.01,Wunderground v.1.15,2013-01-10 17:14:00,
2013-01-10 12:17:00,41.1,25.3,30.43,South,172,5.0,7.0,53,0.00,,,0.01,Wunderground v.1.15,2013-01-10 17:17:00,
2013-01-10 12:18:00,41.1,24.8,30.43,South,172,2.0,7.0,52,0.00,,,0.01,Wunderground v.1.15,2013-01-10 17:18:00,
2013-01-10 12:19:00,41.0,25.2,30.43,South,172,3.0,7.0,53,0.00,,,0.01,Wunderground v.1.15,2013-01-10 17:19:00,
2013-01-10 12:22:00,40.9,25.1,30.43,South,172,2.0,5.0,53,0.00,,,0.01,Wunderground v.1.15,2013-01-10 17:22:00,
2013-01-10 12:23:00,40.9,25.5,30.43,South,172,0.0,5.0,54,0.00,,,0.02,Wunderground v.1.15,2013-01-10 17:23:00,
2013-01-10 12:24:00,41.0,25.6,30.43,South,172,4.0,5.0,54,0.00,,,0.02,Wunderground v.1.15,2013-01-10 17:24:00,
2013-01-10 12:27:00,41.1,25.3,30.43,South,172,5.0,5.0,53,0.00,,,0.02,Wunderground v.1.15,2013-01-10 17:27:00,
2013-01-10 12:28:00,40.9,24.6,30.43,South,172,1.0,6.0,52,0.00,,,0.02,Wunderground v.1.15,2013-01-10 17:28:00,
2013-01-10 12:29:00,41.0,24.7,30.43,South,172,2.0,6.0,52,0.00,,,0.02,Wunderground v.1.15,2013-01-10 17:29:00,
2013-01-10 12:30:00,40.9,24.6,30.43,South,172,3.0,3.0,52,0.00,,,0.02,Wunderground v.1.15,2013-01-10 17:30:00,
2013-01-10 12:32:00,40.9,25.1,30.43,South,172,1.0,5.0,53,0.00,,,0.02,Wunderground v.1.15,2013-01-10 17:32:00,
2013-01-10 12:33:00,40.8,25.0,30.43,South,172,3.0,8.0,53,0.00,,,0.02,Wunderground v.1.15,2013-01-10 17:33:00,
2013-01-10 12:34:00,40.7,24.9,30.43,South,172,2.0,8.0,53,0.00,,,0.02,Wunderground v.1.15,2013-01-10 17:34:00,
2013-01-10 12:35:00,40.7,25.3,30.43,South,172,2.0,8.0,54,0.00,,,0.02,Wunderground v.1.15,2013-01-10 17:35:00,
2013-01-10 12:37:00,40.8,25.4,30.43,South,172,1.0,8.0,54,0.00,,,0.02,Wunderground v.1.15,2013-01-10 17:37:00,
2013-01-10 12:39:00,40.8,25.4,30.43,South,172,1.0,10.0,54,0.04,,,0.03,Wunderground v.1.15,2013-01-10 17:39:00,
2013-01-10 12:40:00,40.9,25.5,30.43,South,172,1.0,2.0,54,0.04,,,0.03,Wunderground v.1.15,2013-01-10 17:40:00,
2013-01-10 12:42:00,41.1,24.8,30.43,South,172,4.0,5.0,52,0.04,,,0.03,Wunderground v.1.15,2013-01-10 17:42:00,
2013-01-10 12:44:00,41.0,25.2,30.44,South,172,3.0,5.0,53,0.04,,,0.03,Wunderground v.1.15,2013-01-10 17:44:00,
2013-01-10 12:45:00,40.9,25.5,30.44,South,172,3.0,5.0,54,0.04,,,0.03,Wunderground v.1.15,2013-01-10 17:45:00,
2013-01-10 12:47:00,40.8,25.4,30.43,South,172,4.0,6.0,54,0.04,,,0.03,Wunderground v.1.15,2013-01-10 17:47:00,
2013-01-10 12:49:00,40.9,24.6,30.44,South,172,0.0,6.0,52,0.04,,,0.03,Wunderground v.1.15,2013-01-10 17:49:00,
2013-01-10 12:50:00,40.9,25.1,30.44,South,172,2.0,3.0,53,0.04,,,0.03,Wunderground v.1.15,2013-01-10 17:50:00,
2013-01-10 12:53:00,41.0,24.7,30.44,South,172,2.0,3.0,52,0.04,,,0.03,Wunderground v.1.15,2013-01-10 17:53:00,
2013-01-10 12:54:00,40.9,25.1,30.44,South,172,2.0,5.0,53,0.04,,,0.04,Wunderground v.1.15,2013-01-10 17:54:00,
2013-01-10 12:55:00,41.0,25.2,30.43,South,172,1.0,5.0,53,0.04,,,0.04,Wunderground v.1.15,2013-01-10 17:55:00,
2013-01-10 12:58:00,41.0,25.6,30.44,South,172,0.0,5.0,54,0.04,,,0.04,Wunderground v.1.15,2013-01-10 17:58:00,
2013-01-10 12:59:00,41.1,25.3,30.43,South,172,1.0,6.0,53,0.04,,,0.04,Wunderground v.1.15,2013-01-10 17:59:00,
2013-01-10 13:00:00,41.0,25.2,30.43,South,172,2.0,2.0,53,0.04,,,0.04,Wunderground v.1.15,2013-01-10 18:00:00,
2013-01-10 13:02:00,41.1,25.3,30.43,South,172,1.0,2.0,53,0.04,,,0.04,Wunderground v.1.15,2013-01-10 18:02:00,
2013-01-10 13:03:00,41.2,25.3,30.43,South,172,0.0,2.0,53,0.04,,,0.04,Wunderground v.1.15,2013-01-10 18:03:00,
2013-01-10 13:04:00,41.3,25.4,30.43,South,172,3.0,4.0,53,0.04,,,0.04,Wunderground v.1.15,2013-01-10 18:04:00,
2013-01-10 13:05:00,41.3,25.4,30.43,South,172,2.0,4.0,53,0.04,,,0.04,Wunderground v.1.15,2013-01-10 18:05:00,
2013-01-10 13:07:00,41.1,25.7,30.43,South,172,2.0,8.0,54,0.04,,,0.04,Wunderground v.1.15,2013-01-10 18:07:00,
2013-01-10 13:08:00,40.9,25.1,30.43,South,172,0.0,8.0,53,0.04,,,0.04,Wunderground v.1.15,2013-01-10 18:08:00,
2013-01-10 13:09:00,40.9,25.1,30.43,South,172,1.0,8.0,53,0.04,,,0.04,Wunderground v.1.15,2013-01-10 18:09:00,
2013-01-10 13:10:00,40.9,25.1,30.43,South,172,2.0,2.0,53,0.04,,,0.04,Wunderground v.1.15,2013-01-10 18:10:00,
2013-01-10 13:12:00,41.0,25.6,30.43,South,172,1.0,4.0,54,0.00,,,0.04,Wunderground v.1.15,2013-01-10 18:12:00,
2013-01-10 13:13:00,41.0,25.6,30.43,South,172,2.0,4.0,54,0.00,,,0.04,Wunderground v.1.15,2013-01-10 18:13:00,
2013-01-10 13:14:00,41.0,25.6,30.43,South,172,0.0,4.0,54,0.00,,,0.05,Wunderground v.1.15,2013-01-10 18:14:00,
2013-01-10 13:15:00,41.1,25.7,30.43,South,172,4.0,4.0,54,0.00,,,0.05,Wunderground v.1.15,2013-01-10 18:15:00,
2013-01-10 13:17:00,41.1,26.1,30.43,South,172,1.0,6.0,55,0.00,,,0.05,Wunderground v.1.15,2013-01-10 18:17:00,
2013-01-10 13:18:00,41.0,25.6,30.43,South,172,3.0,6.0,54,0.00,,,0.05,Wunderground v.1.15,2013-01-10 18:18:00,
2013-01-10 13:19:00,40.9,25.5,30.43,South,172,1.0,6.0,54,0.00,,,0.05,Wunderground v.1.15,2013-01-10 18:19:00,
2013-01-10 13:20:00,40.9,25.5,30.43,South,172,1.0,2.0,54,0.00,,,0.05,Wunderground v.1.15,2013-01-10 18:20:00,
2013-01-10 13:22:00,40.9,25.5,30.44,South,172,2.0,6.0,54,0.00,,,0.05,Wunderground v.1.15,2013-01-10 18:22:00,
2013-01-10 13:23:00,40.8,25.4,30.44,South,172,4.0,7.0,54,0.00,,,0.05,Wunderground v.1.15,2013-01-10 18:23:00,
2013-01-10 13:25:00,40.6,25.7,30.44,South,172,2.0,7.0,55,0.00,,,0.05,Wunderground v.1.15,2013-01-10 18:25:00,
2013-01-10 13:27:00,40.5,24.7,30.45,South,172,4.0,7.0,53,0.00,,,0.05,Wunderground v.1.15,2013-01-10 18:27:00,
2013-01-10 13:28:00,40.5,25.1,30.44,South,172,8.0,10.0,54,0.00,,,0.05,Wunderground v.1.15,2013-01-10 18:28:00,
2013-01-10 13:30:00,40.4,25.5,30.45,South,172,1.0,2.0,55,0.00,,,0.05,Wunderground v.1.15,2013-01-10 18:30:00,
2013-01-10 13:32:00,40.5,25.1,30.45,South,172,2.0,4.0,54,0.00,,,0.05,Wunderground v.1.15,2013-01-10 18:32:00,
2013-01-10 13:34:00,40.6,25.2,30.46,South,172,3.0,4.0,54,0.00,,,0.05,Wunderground v.1.15,2013-01-10 18:34:00,
2013-01-10 13:35:00,40.4,24.6,30.45,South,172,3.0,8.0,53,0.00,,,0.05,Wunderground v.1.15,2013-01-10 18:35:00,
2013-01-10 13:38:00,40.3,24.5,30.46,South,172,3.0,8.0,53,0.00,,,0.05,Wunderground v.1.15,2013-01-10 18:38:00,
2013-01-10 13:39:00,40.4,25.1,30.46,South,172,4.0,8.0,54,0.00,,,0.06,Wunderground v.1.15,2013-01-10 18:39:00,
2013-01-10 13:40:00,40.4,24.6,30.46,South,172,1.0,5.0,53,0.00,,,0.06,Wunderground v.1.15,2013-01-10 18:40:00,
2013-01-10 13:43:00,40.3,25.0,30.46,South,172,1.0,5.0,54,0.00,,,0.06,Wunderground v.1.15,2013-01-10 18:43:00,
2013-01-10 13:44:00,40.2,25.3,30.46,South,172,3.0,5.0,55,0.00,,,0.06,Wunderground v.1.15,2013-01-10 18:44:00,
2013-01-10 13:45:00,40.1,25.6,30.46,South,172,3.0,5.0,56,0.00,,,0.06,Wunderground v.1.15,2013-01-10 18:45:00,
2013-01-10 13:48:00,40.1,24.8,30.47,South,172,2.0,5.0,54,0.00,,,0.06,Wunderground v.1.15,2013-01-10 18:48:00,
2013-01-10 13:49:00,40.1,24.8,30.46,South,172,4.0,5.0,54,0.00,,,0.06,Wunderground v.1.15,2013-01-10 18:49:00,
2013-01-10 13:50:00,40.1,24.8,30.47,South,172,0.0,4.0,54,0.00,,,0.06,Wunderground v.1.15,2013-01-10 18:50:00,
2013-01-10 13:51:00,40.1,25.2,30.47,South,172,0.0,4.0,55,0.00,,,0.06,Wunderground v.1.15,2013-01-10 18:51:00,
2013-01-10 13:53:00,40.4,25.1,30.47,South,172,2.0,4.0,54,0.00,,,0.06,Wunderground v.1.15,2013-01-10 18:53:00,
2013-01-10 13:54:00,40.5,25.1,30.47,South,172,3.0,4.0,54,0.00,,,0.06,Wunderground v.1.15,2013-01-10 18:54:00,
2013-01-10 13:56:00,40.5,25.1,30.47,South,172,1.0,4.0,54,0.00,,,0.06,Wunderground v.1.15,2013-01-10 18:56:00,
2013-01-10 13:58:00,40.5,25.6,30.47,South,172,1.0,4.0,55,0.00,,,0.06,Wunderground v.1.15,2013-01-10 18:58:00,
2013-01-10 13:59:00,40.6,25.2,30.47,South,172,0.0,4.0,54,0.00,,,0.06,Wunderground v.1.15,2013-01-10 18:59:00,
2013-01-10 14:02:00,40.7,25.3,30.48,South,172,2.0,2.0,54,0.00,,,0.06,Wunderground v.1.15,2013-01-10 19:02:00,
2013-01-10 14:03:00,40.7,25.3,30.48,South,172,3.0,4.0,54,0.00,,,0.06,Wunderground v.1.15,2013-01-10 19:03:00,
2013-01-10 14:04:00,40.7,25.3,30.48,South,172,1.0,6.0,54,0.00,,,0.06,Wunderground v.1.15,2013-01-10 19:04:00,
2013-01-10 14:07:00,40.7,25.3,30.48,South,172,1.0,6.0,54,0.00,,,0.06,Wunderground v.1.15,2013-01-10 19:07:00,
2013-01-10 14:08:00,40.7,25.8,30.48,South,172,1.0,6.0,55,0.00,,,0.06,Wunderground v.1.15,2013-01-10 19:08:00,
2013-01-10 14:10:00,40.7,25.3,30.48,South,172,3.0,3.0,54,0.00,,,0.06,Wunderground v.1.15,2013-01-10 19:10:00,
2013-01-10 14:12:00,40.5,24.7,30.48,South,172,1.0,6.0,53,0.00,,,0.06,Wunderground v.1.15,2013-01-10 19:12:00,
2013-01-10 14:13:00,40.4,24.6,30.48,South,172,0.0,6.0,53,0.00,,,0.06,Wunderground v.1.15,2013-01-10 19:13:00,
2013-01-10 14:15:00,40.4,24.6,30.48,South,172,1.0,6.0,53,0.00,,,0.06,Wunderground v.1.15,2013-01-10 19:15:00,
2013-01-10 14:17:00,40.3,25.0,30.48,South,172,0.0,6.0,54,0.00,,,0.06,Wunderground v.1.15,2013-01-10 19:17:00,
2013-01-10 14:18:00,40.2,25.3,30.48,South,172,3.0,6.0,55,0.00,,,0.06,Wunderground v.1.15,2013-01-10 19:18:00,
2013-01-10 14:20:00,40.0,24.7,30.48,South,172,1.0,3.0,54,0.00,,,0.07,Wunderground v.1.15,2013-01-10 19:20:00,
2013-01-10 14:22:00,40.0,24.2,30.47,South,172,1.0,3.0,53,0.00,,,0.07,Wunderground v.1.15,2013-01-10 19:22:00,
2013-01-10 14:23:00,40.0,24.2,30.48,South,172,2.0,3.0,53,0.00,,,0.07,Wunderground v.1.15,2013-01-10 19:23:00,
2013-01-10 14:24:00,40.0,25.1,30.47,South,172,2.0,7.0,55,0.00,,,0.07,Wunderground v.1.15,2013-01-10 19:24:00,
2013-01-10 14:25:00,40.0,25.1,30.48,South,172,2.0,7.0,55,0.00,,,0.07,Wunderground v.1.15,2013-01-10 19:25:00,
2013-01-10 14:28:00,40.0,24.7,30.48,South,172,3.0,7.0,54,0.00,,,0.07,Wunderground v.1.15,2013-01-10 19:28:00,
2013-01-10 14:29:00,40.0,24.7,30.47,South,172,2.0,7.0,54,0.00,,,0.07,Wunderground v.1.15,2013-01-10 19:29:00,
2013-01-10 14:31:00,40.0,24.7,30.48,South,172,0.0,1.0,54,0.00,,,0.07,Wunderground v.1.15,2013-01-10 19:31:00,
2013-01-10 14:33:00,40.2,25.3,30.47,South,172,0.0,1.0,55,0.00,,,0.07,Wunderground v.1.15,2013-01-10 19:33:00,
2013-01-10 14:34:00,40.4,25.5,30.48,South,172,0.0,1.0,55,0.00,,,0.07,Wunderground v.1.15,2013-01-10 19:34:00,
2013-01-10 14:38:00,40.8,25.0,30.47,South,172,0.0,3.0,53,0.00,,,0.07,Wunderground v.1.15,2013-01-10 19:38:00,
2013-01-10 14:39:00,40.9,25.1,30.47,South,172,0.0,3.0,53,0.00,,,0.07,Wunderground v.1.15,2013-01-10 19:39:00,
2013-01-10 14:43:00,40.4,24.1,30.47,South,172,1.0,4.0,52,0.00,,,0.07,Wunderground v.1.15,2013-01-10 19:43:00,
2013-01-10 14:44:00,40.4,24.1,30.47,South,172,1.0,4.0,52,0.00,,,0.07,Wunderground v.1.15,2013-01-10 19:44:00,
2013-01-10 14:48:00,40.0,25.1,30.47,South,172,1.0,6.0,55,0.00,,,0.07,Wunderground v.1.15,2013-01-10 19:48:00,
2013-01-10 14:49:00,39.9,25.0,30.47,South,172,0.0,6.0,55,0.00,,,0.07,Wunderground v.1.15,2013-01-10 19:49:00,
2013-01-10 14:53:00,39.9,25.0,30.47,South,172,1.0,3.0,55,0.00,,,0.07,Wunderground v.1.15,2013-01-10 19:53:00,
2013-01-10 14:54:00,39.9,25.0,30.48,South,172,0.0,3.0,55,0.00,,,0.07,Wunderground v.1.15,2013-01-10 19:54:00,
2013-01-10 14:59:00,39.3,24.9,30.48,South,172,1.0,3.0,56,0.00,,,0.07,Wunderground v.1.15,2013-01-10 19:59:00,
2013-01-10 15:04:00,38.9,24.9,30.48,South,172,0.0,2.0,57,0.00,,,0.07,Wunderground v.1.15,2013-01-10 20:04:00,
2013-01-10 15:05:00,38.9,24.5,30.48,South,172,4.0,4.0,56,0.00,,,0.07,Wunderground v.1.15,2013-01-10 20:05:00,
2013-01-10 15:09:00,38.6,24.2,30.48,South,172,0.0,6.0,56,0.00,,,0.07,Wunderground v.1.15,2013-01-10 20:09:00,
2013-01-10 15:10:00,38.6,24.2,30.48,South,172,0.0,1.0,56,0.00,,,0.07,Wunderground v.1.15,2013-01-10 20:10:00,
2013-01-10 15:14:00,38.3,24.4,30.48,South,172,1.0,4.0,57,0.00,,,0.07,Wunderground v.1.15,2013-01-10 20:14:00,
2013-01-10 15:15:00,38.2,24.7,30.48,South,172,0.0,4.0,58,0.00,,,0.07,Wunderground v.1.15,2013-01-10 20:15:00,
2013-01-10 15:19:00,37.8,24.3,30.49,South,172,1.0,4.0,58,0.00,,,0.07,Wunderground v.1.15,2013-01-10 20:19:00,
2013-01-10 15:20:00,37.9,24.0,30.49,South,172,2.0,2.0,57,0.00,,,0.07,Wunderground v.1.15,2013-01-10 20:20:00,
2013-01-10 15:24:00,37.6,24.6,30.49,South,172,1.0,6.0,59,0.00,,,0.07,Wunderground v.1.15,2013-01-10 20:24:00,
2013-01-10 15:25:00,37.6,24.6,30.49,South,172,1.0,6.0,59,0.00,,,0.07,Wunderground v.1.15,2013-01-10 20:25:00,
2013-01-10 15:29:00,37.3,24.3,30.49,South,172,1.0,7.0,59,0.00,,,0.07,Wunderground v.1.15,2013-01-10 20:29:00,
2013-01-10 15:30:00,37.2,24.2,30.49,South,172,1.0,2.0,59,0.00,,,0.07,Wunderground v.1.15,2013-01-10 20:30:00,
2013-01-10 15:35:00,37.0,24.4,30.49,South,172,3.0,4.0,60,0.00,,,0.07,Wunderground v.1.15,2013-01-10 20:35:00,
2013-01-10 15:40:00,36.8,24.2,30.50,South,172,1.0,6.0,60,0.00,,,0.07,Wunderground v.1.15,2013-01-10 20:40:00,
2013-01-10 15:41:00,36.8,24.2,30.50,South,172,1.0,6.0,60,0.00,,,0.07,Wunderground v.1.15,2013-01-10 20:41:00,
2013-01-10 15:45:00,36.6,24.8,30.50,South,172,0.0,6.0,62,0.00,,,0.07,Wunderground v.1.15,2013-01-10 20:45:00,
2013-01-10 15:46:00,36.6,24.8,30.50,South,172,2.0,6.0,62,0.00,,,0.07,Wunderground v.1.15,2013-01-10 20:46:00,
2013-01-10 15:50:00,36.4,23.8,30.50,South,172,2.0,3.0,60,0.00,,,0.07,Wunderground v.1.15,2013-01-10 20:50:00,
2013-01-10 15:51:00,36.3,23.7,30.50,South,172,1.0,3.0,60,0.00,,,0.07,Wunderground v.1.15,2013-01-10 20:51:00,
2013-01-10 15:56:00,36.2,24.0,30.51,South,172,1.0,3.0,61,0.00,,,0.07,Wunderground v.1.15,2013-01-10 20:56:00,
2013-01-10 16:02:00,36.1,23.9,30.51,South,172,1.0,1.0,61,0.00,,,0.07,Wunderground v.1.15,2013-01-10 21:02:00,
2013-01-10 16:07:00,35.6,24.2,30.51,South,172,1.0,1.0,63,0.00,,,0.07,Wunderground v.1.15,2013-01-10 21:07:00,
2013-01-10 16:12:00,35.1,24.9,30.52,South,172,0.0,2.0,66,0.00,,,0.07,Wunderground v.1.15,2013-01-10 21:12:00,
2013-01-10 16:17:00,34.8,24.2,30.52,South,172,0.0,2.0,65,0.00,,,0.07,Wunderground v.1.15,2013-01-10 21:17:00,
2013-01-10 16:22:00,34.6,24.8,30.52,South,172,2.0,3.0,67,0.00,,,0.07,Wunderground v.1.15,2013-01-10 21:22:00,
2013-01-10 16:23:00,34.6,24.4,30.52,South,172,1.0,3.0,66,0.00,,,0.07,Wunderground v.1.15,2013-01-10 21:23:00,
2013-01-10 16:28:00,34.4,24.6,30.53,South,172,0.0,3.0,67,0.00,,,0.07,Wunderground v.1.15,2013-01-10 21:28:00,
2013-01-10 16:33:00,34.2,24.4,30.53,South,172,0.0,0.0,67,0.00,,,0.07,Wunderground v.1.15,2013-01-10 21:33:00,
2013-01-10 16:34:00,34.1,24.3,30.53,South,172,1.0,1.0,67,0.00,,,0.07,Wunderground v.1.15,2013-01-10 21:34:00,
2013-01-10 16:38:00,34.0,24.2,30.52,South,172,1.0,3.0,67,0.00,,,0.07,Wunderground v.1.15,2013-01-10 21:38:00,
2013-01-10 16:39:00,34.0,24.2,30.53,South,172,1.0,3.0,67,0.00,,,0.07,Wunderground v.1.15,2013-01-10 21:39:00,
2013-01-10 16:43:00,33.8,24.4,30.52,South,172,1.0,2.0,68,0.00,,,0.07,Wunderground v.1.15,2013-01-10 21:43:00,
2013-01-10 16:44:00,33.7,23.9,30.52,South,172,1.0,2.0,67,0.00,,,0.07,Wunderground v.1.15,2013-01-10 21:44:00,
2013-01-10 16:48:00,33.5,24.1,30.52,South,172,0.0,3.0,68,0.00,,,0.07,Wunderground v.1.15,2013-01-10 21:48:00,
2013-01-10 16:49:00,33.5,24.1,30.53,South,172,0.0,3.0,68,0.00,,,0.07,Wunderground v.1.15,2013-01-10 21:49:00,
2013-01-10 16:53:00,33.5,23.4,30.52,South,172,0.0,3.0,66,0.00,,,0.07,Wunderground v.1.15,2013-01-10 21:53:00,
2013-01-10 16:54:00,33.6,23.4,30.52,South,172,1.0,3.0,66,0.00,,,0.07,Wunderground v.1.15,2013-01-10 21:54:00,
2013-01-10 16:58:00,33.6,24.2,30.53,South,172,0.0,4.0,68,0.00,,,0.07,Wunderground v.1.15,2013-01-10 21:58:00,
2013-01-10 16:59:00,33.4,24.0,30.53,South,172,1.0,4.0,68,0.00,,,0.07,Wunderground v.1.15,2013-01-10 21:59:00,
2013-01-10 17:03:00,33.3,23.5,30.53,South,172,0.0,1.0,67,0.00,,,0.07,Wunderground v.1.15,2013-01-10 22:03:00,
2013-01-10 17:04:00,33.3,23.5,30.53,South,172,0.0,1.0,67,0.00,,,0.07,Wunderground v.1.15,2013-01-10 22:04:00,
2013-01-10 17:08:00,33.3,23.5,30.53,South,172,1.0,2.0,67,0.00,,,0.07,Wunderground v.1.15,2013-01-10 22:08:00,
2013-01-10 17:09:00,33.3,23.5,30.53,South,172,0.0,2.0,67,0.00,,,0.07,Wunderground v.1.15,2013-01-10 22:09:00,
2013-01-10 17:13:00,33.0,23.6,30.53,South,172,3.0,3.0,68,0.00,,,0.07,Wunderground v.1.15,2013-01-10 22:13:00,
2013-01-10 17:14:00,32.9,23.8,30.53,South,172,0.0,3.0,69,0.00,,,0.07,Wunderground v.1.15,2013-01-10 22:14:00,
2013-01-10 17:18:00,32.6,23.6,30.53,South,172,0.0,3.0,69,0.00,,,0.07,Wunderground v.1.15,2013-01-10 22:18:00,
2013-01-10 17:20:00,32.6,23.2,30.53,South,172,1.0,1.0,68,0.00,,,0.07,Wunderground v.1.15,2013-01-10 22:20:00,
2013-01-10 17:24:00,32.6,23.6,30.53,South,172,1.0,2.0,69,0.00,,,0.07,Wunderground v.1.15,2013-01-10 22:24:00,
2013-01-10 17:25:00,32.6,23.6,30.53,South,172,1.0,2.0,69,0.00,,,0.07,Wunderground v.1.15,2013-01-10 22:25:00,
2013-01-10 17:29:00,32.8,23.4,30.53,South,172,0.0,2.0,68,0.00,,,0.07,Wunderground v.1.15,2013-01-10 22:29:00,
2013-01-10 17:30:00,32.9,23.5,30.54,South,172,1.0,1.0,68,0.00,,,0.07,Wunderground v.1.15,2013-01-10 22:30:00,
2013-01-10 17:34:00,32.8,23.4,30.54,South,172,2.0,3.0,68,0.00,,,0.07,Wunderground v.1.15,2013-01-10 22:34:00,
2013-01-10 17:35:00,32.8,23.4,30.54,South,172,0.0,3.0,68,0.00,,,0.07,Wunderground v.1.15,2013-01-10 22:35:00,
2013-01-10 17:39:00,32.7,24.0,30.54,South,172,0.0,3.0,70,0.00,,,0.07,Wunderground v.1.15,2013-01-10 22:39:00,
2013-01-10 17:40:00,32.5,23.1,30.54,South,172,1.0,2.0,68,0.00,,,0.07,Wunderground v.1.15,2013-01-10 22:40:00,
2013-01-10 17:44:00,32.5,23.5,30.55,South,172,0.0,2.0,69,0.00,,,0.07,Wunderground v.1.15,2013-01-10 22:44:00,
2013-01-10 17:45:00,32.5,23.8,30.55,South,172,0.0,2.0,70,0.00,,,0.07,Wunderground v.1.15,2013-01-10 22:45:00,
2013-01-10 17:49:00,32.4,23.4,30.55,South,172,1.0,2.0,69,0.00,,,0.07,Wunderground v.1.15,2013-01-10 22:49:00,
2013-01-10 17:50:00,32.2,23.5,30.55,South,172,0.0,1.0,70,0.00,,,0.07,Wunderground v.1.15,2013-01-10 22:50:00,
2013-01-10 17:54:00,32.1,23.4,30.55,South,172,0.0,2.0,70,0.00,,,0.07,Wunderground v.1.15,2013-01-10 22:54:00,
2013-01-10 17:55:00,32.0,23.7,30.55,South,172,0.0,2.0,71,0.00,,,0.07,Wunderground v.1.15,2013-01-10 22:55:00,
2013-01-10 17:59:00,31.9,23.6,30.55,South,172,3.0,4.0,71,0.00,,,0.07,Wunderground v.1.15,2013-01-10 22:59:00,
2013-01-10 18:00:00,31.8,23.5,30.55,South,172,6.0,8.0,71,0.00,,,0.07,Wunderground v.1.15,2013-01-10 23:00:00,
2013-01-10 18:01:00,31.8,23.5,30.55,South,172,1.0,8.0,71,0.00,,,0.07,Wunderground v.1.15,2013-01-10 23:01:00,
2013-01-10 18:04:00,31.8,23.8,30.55,South,172,0.0,8.0,72,0.00,,,0.07,Wunderground v.1.15,2013-01-10 23:04:00,
2013-01-10 18:05:00,31.7,23.7,30.55,South,172,0.0,8.0,72,0.00,,,0.07,Wunderground v.1.15,2013-01-10 23:05:00,
2013-01-10 18:06:00,31.7,24.0,30.55,South,172,1.0,8.0,73,0.00,,,0.07,Wunderground v.1.15,2013-01-10 23:06:00,
2013-01-10 18:09:00,31.7,24.4,30.55,South,172,0.0,8.0,74,0.00,,,0.07,Wunderground v.1.15,2013-01-10 23:09:00,
2013-01-10 18:10:00,31.7,24.4,30.55,South,172,0.0,1.0,74,0.00,,,0.07,Wunderground v.1.15,2013-01-10 23:10:00,
2013-01-10 18:11:00,31.6,24.3,30.55,South,172,0.0,1.0,74,0.00,,,0.07,Wunderground v.1.15,2013-01-10 23:11:00,
2013-01-10 18:14:00,31.4,23.7,30.55,South,172,0.0,1.0,73,0.00,,,0.07,Wunderground v.1.15,2013-01-10 23:14:00,
2013-01-10 18:15:00,31.4,23.7,30.55,South,172,0.0,1.0,73,0.00,,,0.07,Wunderground v.1.15,2013-01-10 23:15:00,
2013-01-10 18:16:00,31.2,23.5,30.56,South,172,0.0,1.0,73,0.00,,,0.07,Wunderground v.1.15,2013-01-10 23:16:00,
2013-01-10 18:19:00,31.1,23.5,30.56,South,172,1.0,2.0,73,0.00,,,0.07,Wunderground v.1.15,2013-01-10 23:19:00,
2013-01-10 18:20:00,31.1,23.5,30.56,South,172,0.0,1.0,73,0.00,,,0.07,Wunderground v.1.15,2013-01-10 23:20:00,
2013-01-10 18:21:00,31.1,23.8,30.56,South,172,1.0,2.0,74,0.00,,,0.07,Wunderground v.1.15,2013-01-10 23:21:00,
2013-01-10 18:24:00,31.2,23.9,30.56,South,172,0.0,2.0,74,0.00,,,0.07,Wunderground v.1.15,2013-01-10 23:24:00,
2013-01-10 18:25:00,31.2,23.9,30.56,South,172,0.0,2.0,74,0.00,,,0.07,Wunderground v.1.15,2013-01-10 23:25:00,
2013-01-10 18:26:00,31.2,23.9,30.56,South,172,0.0,2.0,74,0.00,,,0.07,Wunderground v.1.15,2013-01-10 23:26:00,
2013-01-10 18:30:00,31.1,23.8,30.56,South,172,1.0,1.0,74,0.00,,,0.07,Wunderground v.1.15,2013-01-10 23:30:00,
2013-01-10 18:32:00,31.0,23.4,30.56,South,172,0.0,1.0,73,0.00,,,0.07,Wunderground v.1.15,2013-01-10 23:32:00,
2013-01-10 18:35:00,30.8,23.5,30.55,South,172,0.0,1.0,74,0.00,,,0.07,Wunderground v.1.15,2013-01-10 23:35:00,
2013-01-10 18:37:00,30.8,23.8,30.55,South,172,3.0,3.0,75,0.00,,,0.07,Wunderground v.1.15,2013-01-10 23:37:00,
2013-01-10 18:40:00,30.7,23.7,30.55,South,172,0.0,0.0,75,0.00,,,0.07,Wunderground v.1.15,2013-01-10 23:40:00,
2013-01-10 18:42:00,30.6,23.6,30.55,South,172,0.0,1.0,75,0.00,,,0.07,Wunderground v.1.15,2013-01-10 23:42:00,
2013-01-10 18:45:00,30.8,23.8,30.55,South,172,0.0,4.0,75,0.00,,,0.07,Wunderground v.1.15,2013-01-10 23:45:00,
2013-01-10 18:47:00,30.8,23.8,30.55,South,172,0.0,4.0,75,0.00,,,0.07,Wunderground v.1.15,2013-01-10 23:47:00,
2013-01-10 18:50:00,30.8,23.8,30.55,South,172,0.0,1.0,75,0.00,,,0.07,Wunderground v.1.15,2013-01-10 23:50:00,
2013-01-10 18:51:00,30.7,23.7,30.55,South,172,0.0,1.0,75,0.00,,,0.07,Wunderground v.1.15,2013-01-10 23:51:00,
2013-01-10 18:53:00,30.7,23.7,30.56,South,172,0.0,3.0,75,0.00,,,0.07,Wunderground v.1.15,2013-01-10 23:53:00,
2013-01-10 18:56:00,30.7,23.7,30.56,South,172,0.0,4.0,75,0.00,,,0.07,Wunderground v.1.15,2013-01-10 23:56:00,
2013-01-10 18:58:00,30.7,23.7,30.56,South,172,1.0,4.0,75,0.00,,,0.07,Wunderground v.1.15,2013-01-10 23:58:00,
2013-01-10 19:02:00,30.6,23.6,30.56,South,172,0.0,1.0,75,0.00,,,0.07,Wunderground v.1.15,2013-01-11 00:02:00,
2013-01-10 19:03:00,30.6,23.6,30.56,South,172,0.0,1.0,75,0.00,,,0.07,Wunderground v.1.15,2013-01-11 00:03:00,
2013-01-10 19:07:00,30.4,23.7,30.56,South,172,0.0,1.0,76,0.00,,,0.07,Wunderground v.1.15,2013-01-11 00:07:00,
2013-01-10 19:08:00,30.4,23.7,30.56,South,172,0.0,1.0,76,0.00,,,0.07,Wunderground v.1.15,2013-01-11 00:08:00,
2013-01-10 19:12:00,30.2,23.5,30.57,South,172,0.0,1.0,76,0.00,,,0.07,Wunderground v.1.15,2013-01-11 00:12:00,
2013-01-10 19:13:00,30.2,23.5,30.57,South,172,0.0,1.0,76,0.00,,,0.07,Wunderground v.1.15,2013-01-11 00:13:00,
2013-01-10 19:17:00,30.0,23.7,30.57,South,172,0.0,2.0,77,0.00,,,0.07,Wunderground v.1.15,2013-01-11 00:17:00,
2013-01-10 19:18:00,30.0,23.7,30.57,South,172,0.0,2.0,77,0.00,,,0.07,Wunderground v.1.15,2013-01-11 00:18:00,
2013-01-10 19:22:00,29.8,23.8,30.57,South,172,1.0,1.0,78,0.00,,,0.07,Wunderground v.1.15,2013-01-11 00:22:00,
2013-01-10 19:23:00,29.8,23.8,30.57,South,172,0.0,1.0,78,0.00,,,0.07,Wunderground v.1.15,2013-01-11 00:23:00,
2013-01-10 19:24:00,29.7,23.7,30.57,South,172,0.0,1.0,78,0.00,,,0.07,Wunderground v.1.15,2013-01-11 00:24:00,
2013-01-10 19:27:00,29.6,23.9,30.57,South,172,0.0,1.0,79,0.00,,,0.07,Wunderground v.1.15,2013-01-11 00:27:00,
2013-01-10 19:28:00,29.6,23.9,30.58,South,172,0.0,1.0,79,0.00,,,0.07,Wunderground v.1.15,2013-01-11 00:28:00,
2013-01-10 19:29:00,29.6,23.6,30.58,South,172,0.0,1.0,78,0.00,,,0.07,Wunderground v.1.15,2013-01-11 00:29:00,
2013-01-10 19:32:00,29.5,23.5,30.58,South,172,1.0,2.0,78,0.00,,,0.07,Wunderground v.1.15,2013-01-11 00:32:00,
2013-01-10 19:33:00,29.5,23.8,30.58,South,172,0.0,2.0,79,0.00,,,0.07,Wunderground v.1.15,2013-01-11 00:33:00,
2013-01-10 19:34:00,29.5,23.8,30.58,South,172,0.0,2.0,79,0.00,,,0.07,Wunderground v.1.15,2013-01-11 00:34:00,
2013-01-10 19:38:00,29.4,23.7,30.58,South,172,0.0,2.0,79,0.00,,,0.07,Wunderground v.1.15,2013-01-11 00:38:00,
2013-01-10 19:39:00,29.4,23.7,30.58,South,172,0.0,2.0,79,0.00,,,0.07,Wunderground v.1.15,2013-01-11 00:39:00,
2013-01-10 19:43:00,29.3,23.6,30.58,South,172,0.0,2.0,79,0.00,,,0.07,Wunderground v.1.15,2013-01-11 00:43:00,
2013-01-10 19:44:00,29.3,23.6,30.58,South,172,1.0,2.0,79,0.00,,,0.07,Wunderground v.1.15,2013-01-11 00:44:00,
2013-01-10 19:48:00,29.5,23.5,30.57,South,172,1.0,2.0,78,0.00,,,0.07,Wunderground v.1.15,2013-01-11 00:48:00,
2013-01-10 19:49:00,29.5,23.5,30.57,South,172,1.0,2.0,78,0.00,,,0.07,Wunderground v.1.15,2013-01-11 00:49:00,
2013-01-10 19:53:00,29.6,23.6,30.57,South,172,1.0,4.0,78,0.00,,,0.07,Wunderground v.1.15,2013-01-11 00:53:00,
2013-01-10 19:54:00,29.6,23.6,30.57,South,172,0.0,4.0,78,0.00,,,0.07,Wunderground v.1.15,2013-01-11 00:54:00,
2013-01-10 19:58:00,29.7,23.7,30.57,South,172,0.0,4.0,78,0.00,,,0.07,Wunderground v.1.15,2013-01-11 00:58:00,
2013-01-10 19:59:00,29.6,23.3,30.57,South,172,0.0,4.0,77,0.00,,,0.07,Wunderground v.1.15,2013-01-11 00:59:00,
2013-01-10 20:03:00,29.6,23.3,30.57,South,172,2.0,3.0,77,0.00,,,0.07,Wunderground v.1.15,2013-01-11 01:03:00,
2013-01-10 20:05:00,29.7,23.4,30.57,South,172,0.0,3.0,77,0.00,,,0.07,Wunderground v.1.15,2013-01-11 01:05:00,
2013-01-10 20:08:00,29.8,23.5,30.57,South,172,2.0,3.0,77,0.00,,,0.07,Wunderground v.1.15,2013-01-11 01:08:00,
2013-01-10 20:10:00,29.9,23.3,30.57,South,172,1.0,1.0,76,0.00,,,0.07,Wunderground v.1.15,2013-01-11 01:10:00,
2013-01-10 20:13:00,30.1,23.4,30.57,South,172,1.0,5.0,76,0.00,,,0.07,Wunderground v.1.15,2013-01-11 01:13:00,
2013-01-10 20:15:00,30.2,23.2,30.57,South,172,3.0,5.0,75,0.00,,,0.07,Wunderground v.1.15,2013-01-11 01:15:00,
2013-01-10 20:18:00,30.3,23.3,30.57,South,172,0.0,5.0,75,0.00,,,0.07,Wunderground v.1.15,2013-01-11 01:18:00,
2013-01-10 20:20:00,30.2,23.2,30.57,South,172,1.0,1.0,75,0.00,,,0.07,Wunderground v.1.15,2013-01-11 01:20:00,
2013-01-10 20:23:00,30.3,23.3,30.57,South,172,1.0,3.0,75,0.00,,,0.07,Wunderground v.1.15,2013-01-11 01:23:00,
2013-01-10 20:25:00,30.2,23.2,30.57,South,172,2.0,3.0,75,0.00,,,0.07,Wunderground v.1.15,2013-01-11 01:25:00,
2013-01-10 20:28:00,30.2,22.9,30.57,South,172,2.0,3.0,74,0.00,,,0.07,Wunderground v.1.15,2013-01-11 01:28:00,
2013-01-10 20:30:00,30.2,23.2,30.57,South,172,0.0,1.0,75,0.00,,,0.07,Wunderground v.1.15,2013-01-11 01:30:00,
2013-01-10 20:33:00,30.3,23.0,30.57,South,172,1.0,1.0,74,0.00,,,0.07,Wunderground v.1.15,2013-01-11 01:33:00,
2013-01-10 20:35:00,30.3,23.0,30.57,South,172,0.0,2.0,74,0.00,,,0.07,Wunderground v.1.15,2013-01-11 01:35:00,
2013-01-10 20:38:00,30.1,23.1,30.57,South,172,4.0,4.0,75,0.00,,,0.07,Wunderground v.1.15,2013-01-11 01:38:00,
2013-01-10 20:40:00,30.1,23.1,30.57,South,172,1.0,1.0,75,0.00,,,0.07,Wunderground v.1.15,2013-01-11 01:40:00,
2013-01-10 20:41:00,30.1,23.1,30.58,South,172,1.0,1.0,75,0.00,,,0.07,Wunderground v.1.15,2013-01-11 01:41:00,
2013-01-10 20:43:00,29.9,22.9,30.58,South,172,0.0,1.0,75,0.00,,,0.07,Wunderground v.1.15,2013-01-11 01:43:00,
2013-01-10 20:45:00,29.8,22.8,30.58,South,172,0.0,3.0,75,0.00,,,0.07,Wunderground v.1.15,2013-01-11 01:45:00,
2013-01-10 20:46:00,29.7,23.1,30.58,South,172,1.0,3.0,76,0.00,,,0.07,Wunderground v.1.15,2013-01-11 01:46:00,
2013-01-10 20:48:00,29.7,23.1,30.58,South,172,0.0,3.0,76,0.00,,,0.07,Wunderground v.1.15,2013-01-11 01:48:00,
2013-01-10 20:50:00,29.6,23.0,30.58,South,172,1.0,2.0,76,0.00,,,0.07,Wunderground v.1.15,2013-01-11 01:50:00,
2013-01-10 20:51:00,29.5,22.9,30.59,South,172,0.0,2.0,76,0.00,,,0.07,Wunderground v.1.15,2013-01-11 01:51:00,
2013-01-10 20:53:00,29.4,23.1,30.59,South,172,1.0,2.0,77,0.00,,,0.07,Wunderground v.1.15,2013-01-11 01:53:00,
2013-01-10 20:55:00,29.4,23.1,30.59,South,172,0.0,2.0,77,0.00,,,0.07,Wunderground v.1.15,2013-01-11 01:55:00,
2013-01-10 20:56:00,29.3,23.0,30.59,South,172,0.0,2.0,77,0.00,,,0.07,Wunderground v.1.15,2013-01-11 01:56:00,
2013-01-10 20:59:00,29.3,23.0,30.59,South,172,0.0,2.0,77,0.00,,,0.07,Wunderground v.1.15,2013-01-11 01:59:00,
2013-01-10 21:00:00,29.3,23.0,30.59,South,172,2.0,2.0,77,0.00,,,0.07,Wunderground v.1.15,2013-01-11 02:00:00,
2013-01-10 21:02:00,29.3,23.0,30.59,South,172,0.0,2.0,77,0.00,,,0.07,Wunderground v.1.15,2013-01-11 02:02:00,
2013-01-10 21:04:00,29.1,23.1,30.59,South,172,0.0,2.0,78,0.00,,,0.07,Wunderground v.1.15,2013-01-11 02:04:00,
2013-01-10 21:06:00,29.0,23.0,30.60,South,172,0.0,2.0,78,0.00,,,0.07,Wunderground v.1.15,2013-01-11 02:06:00,
2013-01-10 21:07:00,29.0,23.0,30.60,South,172,0.0,2.0,78,0.00,,,0.07,Wunderground v.1.15,2013-01-11 02:07:00,
2013-01-10 21:09:00,29.0,23.0,30.60,South,172,0.0,2.0,78,0.00,,,0.07,Wunderground v.1.15,2013-01-11 02:09:00,
2013-01-10 21:11:00,29.0,23.0,30.59,South,172,0.0,2.0,78,0.00,,,0.07,Wunderground v.1.15,2013-01-11 02:11:00,
2013-01-10 21:12:00,29.0,23.0,30.60,South,172,0.0,2.0,78,0.00,,,0.07,Wunderground v.1.15,2013-01-11 02:12:00,
2013-01-10 21:14:00,29.0,23.0,30.59,South,172,0.0,2.0,78,0.00,,,0.07,Wunderground v.1.15,2013-01-11 02:14:00,
2013-01-10 21:16:00,29.0,23.3,30.59,South,172,0.0,2.0,79,0.00,,,0.07,Wunderground v.1.15,2013-01-11 02:16:00,
2013-01-10 21:17:00,29.0,23.3,30.59,South,172,0.0,2.0,79,0.00,,,0.07,Wunderground v.1.15,2013-01-11 02:17:00,
2013-01-10 21:19:00,28.9,23.2,30.60,South,172,2.0,2.0,79,0.00,,,0.07,Wunderground v.1.15,2013-01-11 02:19:00,
2013-01-10 21:21:00,29.0,23.3,30.59,South,172,0.0,2.0,79,0.00,,,0.07,Wunderground v.1.15,2013-01-11 02:21:00,
2013-01-10 21:22:00,29.1,23.4,30.59,South,172,0.0,2.0,79,0.00,,,0.07,Wunderground v.1.15,2013-01-11 02:22:00,
2013-01-10 21:24:00,29.1,23.4,30.60,South,172,0.0,2.0,79,0.00,,,0.07,Wunderground v.1.15,2013-01-11 02:24:00,
2013-01-10 21:26:00,29.2,23.2,30.60,South,172,0.0,3.0,78,0.00,,,0.07,Wunderground v.1.15,2013-01-11 02:26:00,
2013-01-10 21:27:00,29.2,23.5,30.60,South,172,1.0,3.0,79,0.00,,,0.07,Wunderground v.1.15,2013-01-11 02:27:00,
2013-01-10 21:29:00,29.3,23.3,30.60,South,172,0.0,0.0,78,0.00,,,0.07,Wunderground v.1.15,2013-01-11 02:29:00,
2013-01-10 21:32:00,29.2,23.2,30.60,South,172,0.0,1.0,78,0.00,,,0.07,Wunderground v.1.15,2013-01-11 02:32:00,
2013-01-10 21:33:00,29.2,23.2,30.60,South,172,0.0,1.0,78,0.00,,,0.07,Wunderground v.1.15,2013-01-11 02:33:00,
2013-01-10 21:35:00,29.2,23.2,30.60,South,172,0.0,1.0,78,0.00,,,0.07,Wunderground v.1.15,2013-01-11 02:35:00,
2013-01-10 21:37:00,29.2,23.2,30.60,South,172,1.0,1.0,78,0.00,,,0.07,Wunderground v.1.15,2013-01-11 02:37:00,
2013-01-10 21:38:00,29.2,23.2,30.60,South,172,0.0,1.0,78,0.00,,,0.07,Wunderground v.1.15,2013-01-11 02:38:00,
2013-01-10 21:40:00,29.1,23.4,30.60,South,172,1.0,2.0,79,0.00,,,0.07,Wunderground v.1.15,2013-01-11 02:40:00,
2013-01-10 21:42:00,29.1,23.4,30.60,South,172,1.0,2.0,79,0.00,,,0.07,Wunderground v.1.15,2013-01-11 02:42:00,
2013-01-10 21:43:00,29.1,23.4,30.60,South,172,2.0,2.0,79,0.00,,,0.07,Wunderground v.1.15,2013-01-11 02:43:00,
2013-01-10 21:45:00,29.2,23.2,30.60,South,172,0.0,2.0,78,0.00,,,0.07,Wunderground v.1.15,2013-01-11 02:45:00,
2013-01-10 21:47:00,29.2,23.2,30.60,South,172,0.0,2.0,78,0.00,,,0.07,Wunderground v.1.15,2013-01-11 02:47:00,
2013-01-10 21:48:00,29.2,23.5,30.60,South,172,0.0,2.0,79,0.00,,,0.07,Wunderground v.1.15,2013-01-11 02:48:00,
2013-01-10 21:50:00,29.1,23.4,30.61,South,172,1.0,1.0,79,0.00,,,0.07,Wunderground v.1.15,2013-01-11 02:50:00,
2013-01-10 21:53:00,29.0,23.6,30.60,South,172,0.0,3.0,80,0.00,,,0.07,Wunderground v.1.15,2013-01-11 02:53:00,
2013-01-10 21:55:00,28.9,23.5,30.60,South,172,0.0,3.0,80,0.00,,,0.07,Wunderground v.1.15,2013-01-11 02:55:00,
2013-01-10 21:58:00,28.8,23.1,30.60,South,172,0.0,3.0,79,0.00,,,0.07,Wunderground v.1.15,2013-01-11 02:58:00,
2013-01-10 22:02:00,28.7,23.3,30.61,South,172,0.0,0.0,80,0.00,,,0.07,Wunderground v.1.15,2013-01-11 03:02:00,
2013-01-10 22:03:00,28.6,23.2,30.61,South,172,0.0,1.0,80,0.00,,,0.07,Wunderground v.1.15,2013-01-11 03:03:00,
2013-01-10 22:07:00,28.6,23.2,30.61,South,172,2.0,3.0,80,0.00,,,0.07,Wunderground v.1.15,2013-01-11 03:07:00,
2013-01-10 22:08:00,28.6,23.2,30.61,South,172,0.0,3.0,80,0.00,,,0.07,Wunderground v.1.15,2013-01-11 03:08:00,
2013-01-10 22:12:00,28.6,23.5,30.61,South,172,0.0,1.0,81,0.00,,,0.07,Wunderground v.1.15,2013-01-11 03:12:00,
2013-01-10 22:13:00,28.6,23.5,30.61,South,172,0.0,1.0,81,0.00,,,0.07,Wunderground v.1.15,2013-01-11 03:13:00,
2013-01-10 22:14:00,28.6,23.5,30.61,South,172,0.0,1.0,81,0.00,,,0.07,Wunderground v.1.15,2013-01-11 03:14:00,
2013-01-10 22:17:00,28.4,23.3,30.62,South,172,0.0,1.0,81,0.00,,,0.07,Wunderground v.1.15,2013-01-11 03:17:00,
2013-01-10 22:18:00,28.4,23.3,30.62,South,172,0.0,1.0,81,0.00,,,0.07,Wunderground v.1.15,2013-01-11 03:18:00,
2013-01-10 22:19:00,28.4,23.3,30.62,South,172,0.0,1.0,81,0.00,,,0.07,Wunderground v.1.15,2013-01-11 03:19:00,
2013-01-10 22:22:00,28.3,23.2,30.62,South,172,0.0,0.0,81,0.00,,,0.07,Wunderground v.1.15,2013-01-11 03:22:00,
2013-01-10 22:23:00,28.3,23.5,30.62,South,172,0.0,0.0,82,0.00,,,0.07,Wunderground v.1.15,2013-01-11 03:23:00,
2013-01-10 22:24:00,28.3,23.5,30.62,South,172,0.0,0.0,82,0.00,,,0.07,Wunderground v.1.15,2013-01-11 03:24:00,
2013-01-10 22:27:00,28.1,23.3,30.61,South,172,0.0,0.0,82,0.00,,,0.07,Wunderground v.1.15,2013-01-11 03:27:00,
2013-01-10 22:29:00,28.0,23.2,30.61,South,172,0.0,0.0,82,0.00,,,0.07,Wunderground v.1.15,2013-01-11 03:29:00,
2013-01-10 22:32:00,27.9,23.4,30.61,South,172,0.0,2.0,83,0.00,,,0.07,Wunderground v.1.15,2013-01-11 03:32:00,
2013-01-10 22:34:00,27.9,23.1,30.61,South,172,0.0,2.0,82,0.00,,,0.07,Wunderground v.1.15,2013-01-11 03:34:00,
2013-01-10 22:38:00,27.8,23.3,30.61,South,172,0.0,2.0,83,0.00,,,0.07,Wunderground v.1.15,2013-01-11 03:38:00,
2013-01-10 22:39:00,27.8,23.3,30.61,South,172,0.0,2.0,83,0.00,,,0.07,Wunderground v.1.15,2013-01-11 03:39:00,
2013-01-10 22:43:00,27.8,23.0,30.61,South,172,0.0,0.0,82,0.00,,,0.07,Wunderground v.1.15,2013-01-11 03:43:00,
2013-01-10 22:44:00,27.9,23.1,30.61,South,172,0.0,0.0,82,0.00,,,0.07,Wunderground v.1.15,2013-01-11 03:44:00,
2013-01-10 22:45:00,27.9,23.1,30.61,South,172,0.0,0.0,82,0.00,,,0.07,Wunderground v.1.15,2013-01-11 03:45:00,
2013-01-10 22:48:00,28.0,23.2,30.61,South,172,0.0,0.0,82,0.00,,,0.07,Wunderground v.1.15,2013-01-11 03:48:00,
2013-01-10 22:50:00,28.0,23.2,30.61,South,172,0.0,0.0,82,0.00,,,0.07,Wunderground v.1.15,2013-01-11 03:50:00,
2013-01-10 22:53:00,28.0,23.5,30.61,South,172,0.0,0.0,83,0.00,,,0.07,Wunderground v.1.15,2013-01-11 03:53:00,
2013-01-10 22:55:00,27.9,23.4,30.61,South,172,0.0,0.0,83,0.00,,,0.07,Wunderground v.1.15,2013-01-11 03:55:00,
2013-01-10 22:58:00,27.7,23.2,30.61,South,172,0.0,1.0,83,0.00,,,0.07,Wunderground v.1.15,2013-01-11 03:58:00,
2013-01-10 23:01:00,27.6,23.1,30.61,South,172,0.0,0.0,83,0.00,,,0.07,Wunderground v.1.15,2013-01-11 04:01:00,
2013-01-10 23:03:00,27.5,23.3,30.61,South,172,0.0,0.0,84,0.00,,,0.07,Wunderground v.1.15,2013-01-11 04:03:00,
2013-01-10 23:06:00,27.5,23.3,30.61,South,172,0.0,1.0,84,0.00,,,0.07,Wunderground v.1.15,2013-01-11 04:06:00,
2013-01-10 23:07:00,27.4,23.2,30.60,South,172,0.0,1.0,84,0.00,,,0.07,Wunderground v.1.15,2013-01-11 04:07:00,
2013-01-10 23:08:00,27.4,23.2,30.60,South,172,0.0,1.0,84,0.00,,,0.07,Wunderground v.1.15,2013-01-11 04:08:00,
2013-01-10 23:11:00,27.3,23.1,30.60,South,172,0.0,0.0,84,0.00,,,0.07,Wunderground v.1.15,2013-01-11 04:11:00,
2013-01-10 23:12:00,27.3,23.1,30.60,South,172,0.0,0.0,84,0.00,,,0.07,Wunderground v.1.15,2013-01-11 04:12:00,
2013-01-10 23:13:00,27.3,23.1,30.60,South,172,0.0,1.0,84,0.00,,,0.07,Wunderground v.1.15,2013-01-11 04:13:00,
2013-01-10 23:16:00,27.4,23.2,30.60,South,172,0.0,1.0,84,0.00,,,0.07,Wunderground v.1.15,2013-01-11 04:16:00,
2013-01-10 23:17:00,27.4,23.2,30.60,South,172,0.0,1.0,84,0.00,,,0.07,Wunderground v.1.15,2013-01-11 04:17:00,
2013-01-10 23:18:00,27.4,23.2,30.60,South,172,1.0,1.0,84,0.00,,,0.07,Wunderground v.1.15,2013-01-11 04:18:00,
2013-01-10 23:21:00,27.4,23.2,30.60,South,172,0.0,1.0,84,0.00,,,0.07,Wunderground v.1.15,2013-01-11 04:21:00,
2013-01-10 23:22:00,27.4,23.2,30.60,South,172,0.0,1.0,84,0.00,,,0.07,Wunderground v.1.15,2013-01-11 04:22:00,
2013-01-10 23:23:00,27.4,23.2,30.60,South,172,0.0,1.0,84,0.00,,,0.07,Wunderground v.1.15,2013-01-11 04:23:00,
2013-01-10 23:26:00,27.4,23.2,30.60,South,172,0.0,1.0,84,0.00,,,0.07,Wunderground v.1.15,2013-01-11 04:26:00,
2013-01-10 23:27:00,27.3,23.1,30.60,South,172,0.0,1.0,84,0.00,,,0.07,Wunderground v.1.15,2013-01-11 04:27:00,
2013-01-10 23:29:00,27.3,23.1,30.60,South,172,0.0,1.0,84,0.00,,,0.07,Wunderground v.1.15,2013-01-11 04:29:00,
2013-01-10 23:32:00,27.3,23.1,30.60,South,172,0.0,0.0,84,0.00,,,0.07,Wunderground v.1.15,2013-01-11 04:32:00,
2013-01-10 23:33:00,27.3,23.1,30.60,South,172,0.0,0.0,84,0.00,,,0.07,Wunderground v.1.15,2013-01-11 04:33:00,
2013-01-10 23:37:00,27.3,23.1,30.60,South,172,0.0,0.0,84,0.00,,,0.07,Wunderground v.1.15,2013-01-11 04:37:00,
2013-01-10 23:39:00,27.2,23.0,30.60,South,172,0.0,0.0,84,0.00,,,0.07,Wunderground v.1.15,2013-01-11 04:39:00,
2013-01-10 23:42:00,27.2,23.0,30.61,South,172,0.0,0.0,84,0.00,,,0.07,Wunderground v.1.15,2013-01-11 04:42:00,
2013-01-10 23:43:00,27.2,23.0,30.61,South,172,0.0,0.0,84,0.00,,,0.07,Wunderground v.1.15,2013-01-11 04:43:00,
2013-01-10 23:44:00,27.1,22.9,30.61,South,172,0.0,0.0,84,0.00,,,0.07,Wunderground v.1.15,2013-01-11 04:44:00,
2013-01-10 23:47:00,27.0,22.8,30.61,South,172,1.0,1.0,84,0.00,,,0.07,Wunderground v.1.15,2013-01-11 04:47:00,
2013-01-10 23:48:00,27.0,22.8,30.61,South,172,0.0,1.0,84,0.00,,,0.07,Wunderground v.1.15,2013-01-11 04:48:00,
2013-01-10 23:49:00,27.0,22.8,30.61,South,172,1.0,1.0,84,0.00,,,0.07,Wunderground v.1.15,2013-01-11 04:49:00,
2013-01-10 23:52:00,27.2,23.0,30.60,South,172,0.0,0.0,84,0.00,,,0.07,Wunderground v.1.15,2013-01-11 04:52:00,
2013-01-10 23:53:00,27.2,23.0,30.60,South,172,0.0,0.0,84,0.00,,,0.07,Wunderground v.1.15,2013-01-11 04:53:00,
2013-01-10 23:54:00,27.2,23.0,30.60,South,172,0.0,0.0,84,0.00,,,0.07,Wunderground v.1.15,2013-01-11 04:54:00,
2013-01-10 23:57:00,27.1,23.2,30.60,South,172,1.0,1.0,85,0.00,,,0.07,Wunderground v.1.15,2013-01-11 04:57:00,
2013-01-10 23:58:00,27.0,23.1,30.60,South,172,0.0,1.0,85,0.00,,,0.07,Wunderground v.1.15,2013-01-11 04:58:00,
2013-01-10 23:59:00,26.9,23.0,30.60,South,172,0.0,1.0,85,0.00,,,0.07,Wunderground v.1.15,2013-01-11 04:59:00,